| time (UTC) | temp F | wind direction | speed MPH | gust MPH | rain 1hr in | rain 24hr in | rain mn in | humidity % | barometer mb |
| 20260507052713 | 48 | 120 | 2.0 | 0.0 | 0.00 | 0.00 | 0.00 | 96 | 1009.8 |
| 20260507052613 | 48 | 172 | 3.0 | 0.0 | 0.00 | 0.00 | 0.00 | 96 | 1009.7 |
| 20260507052513 | 48 | 70 | 3.0 | 0.0 | 0.00 | 0.00 | 0.00 | 96 | 1009.7 |
| 20260507052413 | 48 | 93 | 2.0 | 0.0 | 0.00 | 0.00 | 0.00 | 96 | 1009.7 |
| 20260507052313 | 48 | 133 | 1.0 | 0.0 | 0.00 | 0.00 | 0.00 | 96 | 1009.7 |
| 20260507052213 | 48 | 95 | 2.0 | 0.0 | 0.00 | 0.00 | 0.00 | 96 | 1009.7 |
| 20260507052113 | 48 | 134 | 3.0 | 0.0 | 0.00 | 0.00 | 0.00 | 96 | 1009.7 |
| 20260507052012 | 48 | 44 | 1.0 | 0.0 | 0.00 | 0.00 | 0.00 | 96 | 1009.7 |
| 20260507051912 | 48 | 214 | 2.0 | 0.0 | 0.00 | 0.00 | 0.00 | 96 | 1009.7 |
| 20260507051812 | 48 | 97 | 2.0 | 0.0 | 0.00 | 0.00 | 0.00 | 96 | 1009.8 |
| 20260507051712 | 48 | 113 | 1.0 | 0.0 | 0.00 | 0.00 | 0.00 | 96 | 1009.8 |
| 20260507051612 | 48 | 286 | 2.0 | 0.0 | 0.00 | 0.00 | 0.00 | 96 | 1009.8 |
| 20260507051512 | 48 | 336 | 2.0 | 0.0 | 0.00 | 0.00 | 0.00 | 96 | 1009.8 |
| 20260507051412 | 48 | 307 | 2.0 | 0.0 | 0.00 | 0.00 | 0.00 | 96 | 1009.8 |
| 20260507051312 | 48 | 108 | 2.0 | 0.0 | 0.00 | 0.00 | 0.00 | 96 | 1009.8 |
| 20260507051212 | 48 | 323 | 2.0 | 0.0 | 0.00 | 0.00 | 0.00 | 96 | 1009.8 |
| 20260507051112 | 48 | 97 | 3.0 | 0.0 | 0.00 | 0.00 | 0.00 | 96 | 1009.7 |
| 20260507051012 | 48 | 189 | 1.0 | 0.0 | 0.00 | 0.00 | 0.00 | 96 | 1009.7 |
| 20260507050912 | 48 | 196 | 1.0 | 0.0 | 0.00 | 0.00 | 0.00 | 96 | 1009.8 |
| 20260507050812 | 48 | 4 | 3.0 | 0.0 | 0.00 | 0.00 | 0.00 | 96 | 1009.7 |
| 20260507050712 | 48 | 327 | 2.0 | 0.0 | 0.00 | 0.00 | 0.00 | 96 | 1009.7 |
| 20260507050612 | 48 | 249 | 3.0 | 0.0 | 0.00 | 0.00 | 0.00 | 96 | 1009.6 |
| 20260507050512 | 48 | 188 | 2.0 | 0.0 | 0.00 | 0.00 | 0.00 | 96 | 1009.7 |
| 20260507050412 | 48 | 236 | 2.0 | 0.0 | 0.00 | 0.00 | 0.00 | 96 | 1009.5 |
| 20260507050311 | 48 | 107 | 2.0 | 0.0 | 0.00 | 0.00 | 0.00 | 96 | 1009.6 |
| 20260507050211 | 48 | 97 | 2.0 | 0.0 | 0.00 | 0.00 | 0.00 | 96 | 1009.6 |
| 20260507050111 | 48 | 247 | 2.0 | 0.0 | 0.00 | 0.00 | 0.00 | 96 | 1009.6 |
| 20260507050011 | 48 | 148 | 3.0 | 0.0 | 0.00 | 0.00 | 0.00 | 96 | 1009.4 |
| 20260507045911 | 48 | 85 | 2.0 | 0.0 | 0.00 | 0.00 | 0.00 | 96 | 1009.6 |
| 20260507045811 | 48 | 133 | 2.0 | 0.0 | 0.00 | 0.00 | 0.00 | 96 | 1009.6 |
| 20260507045711 | 48 | 126 | 3.0 | 0.0 | 0.00 | 0.00 | 0.00 | 96 | 1009.5 |
| 20260507045611 | 48 | 208 | 2.0 | 0.0 | 0.00 | 0.00 | 0.00 | 96 | 1009.6 |
| 20260507045511 | 48 | 53 | 2.0 | 0.0 | 0.00 | 0.00 | 0.00 | 96 | 1009.6 |
| 20260507045411 | 48 | 286 | 3.0 | 0.0 | 0.00 | 0.00 | 0.00 | 96 | 1009.4 |
| 20260507045311 | 48 | 127 | 2.0 | 0.0 | 0.00 | 0.00 | 0.00 | 96 | 1009.4 |
| 20260507045211 | 48 | 100 | 2.0 | 0.0 | 0.00 | 0.00 | 0.00 | 96 | 1009.4 |
| 20260507045111 | 48 | 62 | 3.0 | 0.0 | 0.00 | 0.00 | 0.00 | 96 | 1009.4 |
| 20260507045011 | 48 | 172 | 3.0 | 0.0 | 0.00 | 0.00 | 0.00 | 96 | 1009.4 |
| 20260507044911 | 48 | 106 | 3.0 | 0.0 | 0.00 | 0.00 | 0.00 | 97 | 1009.5 |
| 20260507044811 | 48 | 193 | 3.0 | 0.0 | 0.00 | 0.00 | 0.00 | 96 | 1009.5 |
| 20260507044711 | 48 | 192 | 2.0 | 0.0 | 0.00 | 0.00 | 0.00 | 96 | 1009.5 |
| 20260507044610 | 48 | 277 | 3.0 | 0.0 | 0.00 | 0.00 | 0.00 | 96 | 1009.5 |
| 20260507044510 | 48 | 139 | 2.0 | 0.0 | 0.00 | 0.00 | 0.00 | 96 | 1009.3 |
| 20260507044410 | 48 | 108 | 2.0 | 0.0 | 0.00 | 0.00 | 0.00 | 96 | 1009.5 |
| 20260507044310 | 48 | 135 | 2.0 | 0.0 | 0.00 | 0.00 | 0.00 | 96 | 1009.3 |
| 20260507044210 | 48 | 186 | 3.0 | 0.0 | 0.00 | 0.00 | 0.00 | 96 | 1009.5 |
| 20260507044110 | 48 | 141 | 2.0 | 0.0 | 0.00 | 0.00 | 0.00 | 96 | 1009.4 |
| 20260507044010 | 48 | 49 | 1.0 | 0.0 | 0.00 | 0.00 | 0.00 | 96 | 1009.3 |
| 20260507043910 | 48 | 89 | 1.0 | 0.0 | 0.00 | 0.00 | 0.00 | 96 | 1009.4 |
| 20260507043810 | 48 | 238 | 4.0 | 0.0 | 0.00 | 0.00 | 0.00 | 96 | 1009.3 |
| 20260507043710 | 48 | 164 | 3.0 | 0.0 | 0.00 | 0.00 | 0.00 | 96 | 1009.3 |
| 20260507043610 | 48 | 130 | 3.0 | 0.0 | 0.00 | 0.00 | 0.00 | 96 | 1009.3 |
| 20260507043510 | 48 | 172 | 3.0 | 0.0 | 0.00 | 0.00 | 0.00 | 96 | 1009.3 |
| 20260507043410 | 48 | 194 | 2.0 | 0.0 | 0.00 | 0.00 | 0.00 | 96 | 1009.3 |
| 20260507043310 | 48 | 226 | 2.0 | 0.0 | 0.00 | 0.00 | 0.00 | 96 | 1009.2 |
| 20260507043210 | 48 | 197 | 3.0 | 0.0 | 0.00 | 0.00 | 0.00 | 96 | 1009.2 |
| 20260507043110 | 48 | 95 | 3.0 | 0.0 | 0.00 | 0.00 | 0.00 | 96 | 1009.3 |
| 20260507043009 | 48 | 20 | 2.0 | 0.0 | 0.00 | 0.00 | 0.00 | 96 | 1009.3 |
| 20260507042909 | 48 | 9 | 3.0 | 0.0 | 0.00 | 0.00 | 0.00 | 96 | 1009.3 |
| 20260507042809 | 48 | 97 | 2.0 | 0.0 | 0.00 | 0.00 | 0.00 | 96 | 1009.3 |
| 20260507042709 | 48 | 110 | 3.0 | 0.0 | 0.00 | 0.00 | 0.00 | 96 | 1009.2 |
| 20260507042609 | 48 | 320 | 3.0 | 0.0 | 0.00 | 0.00 | 0.00 | 96 | 1009.1 |
| 20260507042509 | 48 | 317 | 2.0 | 0.0 | 0.00 | 0.00 | 0.00 | 96 | 1009.3 |
| 20260507042409 | 48 | 43 | 2.0 | 0.0 | 0.00 | 0.00 | 0.00 | 96 | 1009.3 |
| 20260507042309 | 48 | 30 | 2.0 | 0.0 | 0.00 | 0.00 | 0.00 | 96 | 1009.2 |
| 20260507042209 | 48 | 181 | 2.0 | 0.0 | 0.00 | 0.00 | 0.00 | 96 | 1009.2 |
| 20260507042109 | 48 | 87 | 2.0 | 0.0 | 0.00 | 0.00 | 0.00 | 96 | 1009.2 |
| 20260507042009 | 48 | 17 | 3.0 | 0.0 | 0.00 | 0.00 | 0.00 | 96 | 1009.2 |
| 20260507041909 | 48 | 331 | 2.0 | 0.0 | 0.00 | 0.00 | 0.00 | 96 | 1009.1 |
| 20260507041809 | 48 | 80 | 2.0 | 0.0 | 0.00 | 0.00 | 0.00 | 96 | 1009.2 |
| 20260507041709 | 48 | 155 | 2.0 | 0.0 | 0.00 | 0.00 | 0.00 | 96 | 1009.1 |
| 20260507041609 | 48 | 149 | 2.0 | 0.0 | 0.00 | 0.00 | 0.00 | 96 | 1009.1 |
| 20260507041509 | 48 | 95 | 2.0 | 0.0 | 0.00 | 0.00 | 0.00 | 96 | 1009.2 |
| 20260507041409 | 48 | 286 | 2.0 | 0.0 | 0.00 | 0.00 | 0.00 | 96 | 1009.1 |
| 20260507041308 | 48 | 216 | 4.0 | 0.0 | 0.00 | 0.00 | 0.00 | 96 | 1009.1 |
| 20260507041208 | 48 | 216 | 3.0 | 0.0 | 0.00 | 0.00 | 0.00 | 96 | 1008.9 |
| 20260507041108 | 48 | 318 | 4.0 | 0.0 | 0.00 | 0.00 | 0.00 | 96 | 1008.9 |
| 20260507041008 | 48 | 246 | 4.0 | 0.0 | 0.00 | 0.00 | 0.00 | 96 | 1008.9 |
| 20260507040908 | 48 | 211 | 4.0 | 0.0 | 0.00 | 0.00 | 0.00 | 96 | 1008.9 |
| 20260507040808 | 48 | 79 | 2.0 | 0.0 | 0.00 | 0.00 | 0.00 | 95 | 1008.8 |
| 20260507040708 | 48 | 109 | 2.0 | 0.0 | 0.00 | 0.00 | 0.00 | 95 | 1008.8 |
| 20260507040608 | 48 | 105 | 2.0 | 0.0 | 0.00 | 0.00 | 0.00 | 95 | 1008.8 |
| 20260507040508 | 48 | 151 | 2.0 | 0.0 | 0.00 | 0.00 | 0.00 | 95 | 1008.9 |
| 20260507040408 | 48 | 210 | 2.0 | 0.0 | 0.00 | 0.00 | 0.00 | 96 | 1008.8 |
| 20260507040308 | 48 | 192 | 2.0 | 0.0 | 0.00 | 0.00 | 0.00 | 96 | 1008.8 |
| 20260507040208 | 48 | 271 | 3.0 | 0.0 | 0.00 | 0.00 | 0.00 | 96 | 1008.8 |
| 20260507040108 | 48 | 226 | 3.0 | 0.0 | 0.00 | 0.00 | 0.00 | 96 | 1008.9 |
| 20260507040008 | 48 | 27 | 2.0 | 0.0 | 0.00 | 0.00 | 0.00 | 96 | 1008.7 |
| 20260507035908 | 48 | 12 | 1.0 | 0.0 | 0.00 | 0.00 | 0.00 | 96 | 1008.8 |
| 20260507035808 | 48 | 47 | 3.0 | 0.0 | 0.00 | 0.00 | 0.00 | 96 | 1008.7 |
| 20260507035707 | 48 | 93 | 1.0 | 0.0 | 0.00 | 0.00 | 0.00 | 96 | 1008.8 |
| 20260507035607 | 48 | 309 | 3.0 | 0.0 | 0.00 | 0.00 | 0.00 | 96 | 1008.7 |
| 20260507035507 | 48 | 269 | 2.0 | 0.0 | 0.00 | 0.00 | 0.00 | 96 | 1008.8 |
| 20260507035407 | 48 | 54 | 2.0 | 0.0 | 0.00 | 0.00 | 0.00 | 96 | 1008.7 |
| 20260507035307 | 48 | 243 | 4.0 | 0.0 | 0.00 | 0.00 | 0.00 | 95 | 1008.6 |
| 20260507035207 | 48 | 216 | 4.0 | 0.0 | 0.00 | 0.00 | 0.00 | 95 | 1008.6 |
| 20260507035108 | 48 | 96 | 2.0 | 0.0 | 0.00 | 0.00 | 0.00 | 96 | 1008.7 |
| 20260507035007 | 48 | 99 | 3.0 | 0.0 | 0.00 | 0.00 | 0.00 | 95 | 1008.8 |
| 20260507034907 | 48 | 168 | 3.0 | 0.0 | 0.00 | 0.00 | 0.00 | 95 | 1008.7 |
| 20260507034807 | 48 | 261 | 4.0 | 0.0 | 0.00 | 0.00 | 0.00 | 96 | 1008.6 |
| 20260507034707 | 48 | 201 | 4.0 | 0.0 | 0.00 | 0.00 | 0.00 | 96 | 1008.7 |
| 20260507034607 | 49 | 207 | 4.0 | 0.0 | 0.00 | 0.00 | 0.00 | 95 | 1008.7 |
| 20260507034507 | 49 | 217 | 4.0 | 0.0 | 0.00 | 0.00 | 0.00 | 95 | 1008.6 |
| 20260507034407 | 48 | 149 | 4.0 | 0.0 | 0.00 | 0.00 | 0.00 | 95 | 1008.6 |
| 20260507034307 | 48 | 343 | 3.0 | 0.0 | 0.00 | 0.00 | 0.00 | 95 | 1008.6 |
| 20260507034207 | 48 | 123 | 3.0 | 0.0 | 0.00 | 0.00 | 0.00 | 95 | 1008.6 |
| 20260507034106 | 49 | 157 | 2.0 | 0.0 | 0.00 | 0.00 | 0.00 | 95 | 1008.7 |
| 20260507034006 | 49 | 85 | 3.0 | 0.0 | 0.00 | 0.00 | 0.00 | 95 | 1008.6 |
| 20260507033906 | 49 | 126 | 4.0 | 0.0 | 0.00 | 0.00 | 0.00 | 95 | 1008.7 |
| 20260507033806 | 49 | 149 | 2.0 | 0.0 | 0.00 | 0.00 | 0.00 | 95 | 1008.6 |
| 20260507033706 | 49 | 187 | 3.0 | 0.0 | 0.00 | 0.00 | 0.00 | 95 | 1008.6 |
| 20260507033606 | 48 | 197 | 4.0 | 0.0 | 0.00 | 0.00 | 0.00 | 95 | 1008.6 |
| 20260507033506 | 48 | 183 | 3.0 | 0.0 | 0.00 | 0.00 | 0.00 | 95 | 1008.6 |
| 20260507033406 | 49 | 110 | 3.0 | 0.0 | 0.00 | 0.00 | 0.00 | 95 | 1008.6 |
| 20260507033306 | 49 | 84 | 2.0 | 0.0 | 0.00 | 0.00 | 0.00 | 95 | 1008.6 |
| 20260507033206 | 49 | 256 | 2.0 | 0.0 | 0.00 | 0.00 | 0.00 | 95 | 1008.7 |
| 20260507033106 | 49 | 223 | 3.0 | 0.0 | 0.00 | 0.00 | 0.00 | 95 | 1008.7 |
| 20260507033006 | 49 | 233 | 4.0 | 0.0 | 0.00 | 0.00 | 0.00 | 95 | 1008.6 |
| 20260507032906 | 49 | 222 | 3.0 | 0.0 | 0.00 | 0.00 | 0.00 | 95 | 1008.6 |
| 20260507032806 | 49 | 166 | 3.0 | 0.0 | 0.00 | 0.00 | 0.00 | 95 | 1008.6 |
| 20260507032706 | 49 | 172 | 3.0 | 0.0 | 0.00 | 0.00 | 0.00 | 95 | 1008.6 |
| 20260507032606 | 49 | 188 | 3.0 | 0.0 | 0.00 | 0.00 | 0.00 | 95 | 1008.6 |
| 20260507032506 | 49 | 266 | 4.0 | 0.0 | 0.00 | 0.00 | 0.00 | 95 | 1008.5 |
| 20260507032405 | 49 | 157 | 3.0 | 0.0 | 0.00 | 0.00 | 0.00 | 95 | 1008.5 |
| 20260507032306 | 49 | 220 | 3.0 | 0.0 | 0.00 | 0.00 | 0.00 | 95 | 1008.5 |
| 20260507032205 | 49 | 205 | 2.0 | 0.0 | 0.00 | 0.00 | 0.00 | 95 | 1008.6 |
| 20260507032105 | 49 | 158 | 3.0 | 0.0 | 0.00 | 0.00 | 0.00 | 95 | 1008.5 |
| 20260507032005 | 49 | 156 | 3.0 | 0.0 | 0.00 | 0.00 | 0.00 | 95 | 1008.5 |
| 20260507031905 | 49 | 244 | 2.0 | 0.0 | 0.00 | 0.00 | 0.00 | 95 | 1008.6 |
| 20260507031805 | 49 | 207 | 3.0 | 0.0 | 0.00 | 0.00 | 0.00 | 95 | 1008.5 |
| 20260507031705 | 49 | 289 | 3.0 | 0.0 | 0.00 | 0.00 | 0.00 | 95 | 1008.6 |
| 20260507031605 | 49 | 119 | 4.0 | 0.0 | 0.00 | 0.00 | 0.00 | 95 | 1008.4 |
| 20260507031505 | 49 | 106 | 3.0 | 0.0 | 0.00 | 0.00 | 0.00 | 95 | 1008.5 |
| 20260507031405 | 49 | 120 | 3.0 | 0.0 | 0.00 | 0.00 | 0.00 | 95 | 1008.5 |
| 20260507031305 | 49 | 255 | 2.0 | 0.0 | 0.00 | 0.00 | 0.00 | 95 | 1008.4 |
| 20260507031205 | 49 | 180 | 3.0 | 0.0 | 0.00 | 0.00 | 0.00 | 95 | 1008.5 |
| 20260507031105 | 49 | 331 | 4.0 | 0.0 | 0.00 | 0.00 | 0.00 | 95 | 1008.5 |
| 20260507031005 | 49 | 6 | 4.0 | 0.0 | 0.00 | 0.00 | 0.00 | 95 | 1008.4 |
| 20260507030905 | 49 | 96 | 2.0 | 0.0 | 0.00 | 0.00 | 0.00 | 95 | 1008.4 |
| 20260507030804 | 49 | 245 | 2.0 | 0.0 | 0.00 | 0.00 | 0.00 | 95 | 1008.5 |
| 20260507030704 | 49 | 194 | 3.0 | 0.0 | 0.00 | 0.00 | 0.00 | 95 | 1008.3 |
| 20260507030604 | 49 | 70 | 2.0 | 0.0 | 0.00 | 0.00 | 0.00 | 95 | 1008.5 |
| 20260507030504 | 49 | 323 | 3.0 | 0.0 | 0.00 | 0.00 | 0.00 | 95 | 1008.4 |
| 20260507030404 | 49 | 4 | 2.0 | 0.0 | 0.00 | 0.00 | 0.00 | 95 | 1008.4 |
| 20260507030304 | 49 | 32 | 2.0 | 0.0 | 0.00 | 0.00 | 0.00 | 95 | 1008.4 |
| 20260507030204 | 49 | 158 | 1.0 | 0.0 | 0.00 | 0.00 | 0.00 | 95 | 1008.5 |
| 20260507030104 | 49 | 357 | 3.0 | 0.0 | 0.00 | 0.00 | 0.00 | 95 | 1008.4 |
| 20260507030004 | 49 | 323 | 1.0 | 0.0 | 0.00 | 0.00 | 0.00 | 95 | 1008.4 |
| 20260507025904 | 49 | 1 | 0.0 | 0.0 | 0.00 | 0.00 | 0.00 | 95 | 1008.4 |
| 20260507025804 | 49 | 349 | 1.0 | 0.0 | 0.00 | 0.00 | 0.00 | 95 | 1008.4 |
| 20260507025704 | 49 | 209 | 1.0 | 0.0 | 0.00 | 0.00 | 0.00 | 95 | 1008.4 |
| 20260507025604 | 49 | 151 | 1.0 | 0.0 | 0.00 | 0.00 | 0.00 | 95 | 1008.3 |
| 20260507025504 | 49 | 201 | 1.0 | 0.0 | 0.00 | 0.00 | 0.00 | 95 | 1008.4 |
| 20260507025404 | 49 | 157 | 0.0 | 0.0 | 0.00 | 0.00 | 0.00 | 95 | 1008.4 |
| 20260507025306 | 49 | 48 | 1.0 | 0.0 | 0.00 | 0.00 | 0.00 | 95 | 1008.4 |
| 20260507025204 | 49 | 82 | 1.0 | 0.0 | 0.00 | 0.00 | 0.00 | 95 | 1008.4 |
| 20260507025103 | 49 | 81 | 1.0 | 0.0 | 0.00 | 0.00 | 0.00 | 95 | 1008.4 |
| 20260507025003 | 49 | 73 | 0.0 | 0.0 | 0.00 | 0.00 | 0.00 | 95 | 1008.3 |
| 20260507024903 | 49 | 215 | 1.0 | 0.0 | 0.00 | 0.00 | 0.00 | 95 | 1008.3 |
| 20260507024803 | 49 | 249 | 1.0 | 0.0 | 0.00 | 0.00 | 0.00 | 95 | 1008.4 |
| 20260507024703 | 49 | 165 | 0.0 | 0.0 | 0.00 | 0.00 | 0.00 | 95 | 1008.3 |
| 20260507024603 | 49 | 115 | 2.0 | 0.0 | 0.00 | 0.00 | 0.00 | 95 | 1008.2 |
| 20260507024503 | 49 | 168 | 2.0 | 0.0 | 0.00 | 0.00 | 0.00 | 95 | 1008.2 |
| 20260507024403 | 49 | 80 | 1.0 | 0.0 | 0.00 | 0.00 | 0.00 | 95 | 1008.2 |
| 20260507024303 | 49 | 341 | 1.0 | 0.0 | 0.00 | 0.00 | 0.00 | 95 | 1008.3 |
| 20260507024203 | 49 | 354 | 3.0 | 0.0 | 0.00 | 0.00 | 0.00 | 95 | 1008.3 |
| 20260507024103 | 49 | 246 | 1.0 | 0.0 | 0.00 | 0.00 | 0.00 | 95 | 1008.3 |
| 20260507024003 | 49 | 72 | 2.0 | 0.0 | 0.00 | 0.00 | 0.00 | 95 | 1008.3 |
| 20260507023903 | 49 | 124 | 0.0 | 0.0 | 0.00 | 0.00 | 0.00 | 95 | 1008.4 |
| 20260507023803 | 49 | 33 | 0.0 | 0.0 | 0.00 | 0.00 | 0.00 | 95 | 1008.3 |
| 20260507023703 | 50 | 337 | 1.0 | 0.0 | 0.00 | 0.00 | 0.00 | 95 | 1008.3 |
| 20260507023603 | 50 | 145 | 1.0 | 0.0 | 0.00 | 0.00 | 0.00 | 95 | 1008.2 |
| 20260507023502 | 50 | 209 | 0.0 | 0.0 | 0.00 | 0.00 | 0.00 | 95 | 1008.2 |
| 20260507023402 | 50 | 71 | 1.0 | 0.0 | 0.00 | 0.00 | 0.00 | 95 | 1008.2 |
| 20260507023302 | 50 | 175 | 0.0 | 0.0 | 0.00 | 0.00 | 0.00 | 95 | 1008.2 |
| 20260507023202 | 50 | 190 | 2.0 | 0.0 | 0.00 | 0.00 | 0.00 | 95 | 1008.2 |
| 20260507023102 | 50 | 193 | 1.0 | 0.0 | 0.00 | 0.00 | 0.00 | 95 | 1008.4 |
| 20260507023002 | 50 | 63 | 1.0 | 0.0 | 0.00 | 0.00 | 0.00 | 95 | 1008.3 |
| 20260507022902 | 50 | 69 | 1.0 | 0.0 | 0.00 | 0.00 | 0.00 | 95 | 1008.2 |
| 20260507022802 | 50 | 192 | 1.0 | 0.0 | 0.00 | 0.00 | 0.00 | 95 | 1008.2 |
| 20260507022702 | 50 | 146 | 1.0 | 0.0 | 0.00 | 0.00 | 0.00 | 95 | 1008.2 |
| 20260507022602 | 50 | 157 | 0.0 | 0.0 | 0.00 | 0.00 | 0.00 | 95 | 1008.2 |
| 20260507022502 | 50 | 157 | 0.0 | 0.0 | 0.00 | 0.00 | 0.00 | 95 | 1008.3 |
| 20260507022402 | 50 | 140 | 1.0 | 0.0 | 0.00 | 0.00 | 0.00 | 95 | 1008.1 |
| 20260507022302 | 50 | 22 | 1.0 | 0.0 | 0.00 | 0.00 | 0.00 | 95 | 1008.1 |
| 20260507022202 | 50 | 175 | 1.0 | 0.0 | 0.00 | 0.00 | 0.00 | 95 | 1008.3 |
| 20260507022102 | 50 | 175 | 1.0 | 0.0 | 0.00 | 0.00 | 0.00 | 95 | 1008.2 |
| 20260507022002 | 50 | 49 | 2.0 | 0.0 | 0.00 | 0.00 | 0.00 | 95 | 1008.2 |
| 20260507021902 | 50 | 321 | 1.0 | 0.0 | 0.00 | 0.00 | 0.00 | 95 | 1008.3 |
| 20260507021801 | 50 | 186 | 1.0 | 0.0 | 0.00 | 0.00 | 0.00 | 95 | 1008.2 |
| 20260507021701 | 50 | 164 | 0.0 | 0.0 | 0.00 | 0.00 | 0.00 | 95 | 1008.2 |
| 20260507021601 | 50 | 130 | 0.0 | 0.0 | 0.00 | 0.00 | 0.00 | 95 | 1008.1 |
| 20260507021501 | 50 | 198 | 2.0 | 0.0 | 0.00 | 0.00 | 0.00 | 95 | 1008.1 |
| 20260507021401 | 50 | 297 | 1.0 | 0.0 | 0.00 | 0.00 | 0.00 | 95 | 1008.2 |
| 20260507021301 | 50 | 256 | 0.0 | 0.0 | 0.00 | 0.00 | 0.00 | 95 | 1008.0 |
| 20260507021201 | 50 | 56 | 1.0 | 0.0 | 0.00 | 0.00 | 0.00 | 95 | 1008.1 |
| 20260507021101 | 50 | 80 | 1.0 | 0.0 | 0.00 | 0.00 | 0.00 | 95 | 1008.0 |
| 20260507021001 | 50 | 218 | 1.0 | 0.0 | 0.00 | 0.00 | 0.00 | 95 | 1008.1 |
| 20260507020901 | 50 | 195 | 2.0 | 0.0 | 0.00 | 0.00 | 0.00 | 95 | 1008.1 |
| 20260507020801 | 50 | 273 | 1.0 | 0.0 | 0.00 | 0.00 | 0.00 | 95 | 1008.2 |
| 20260507020701 | 50 | 23 | 1.0 | 0.0 | 0.00 | 0.00 | 0.00 | 95 | 1008.0 |
| 20260507020601 | 50 | 37 | 1.0 | 0.0 | 0.00 | 0.00 | 0.00 | 95 | 1008.1 |
| 20260507020501 | 50 | 234 | 2.0 | 0.0 | 0.00 | 0.00 | 0.00 | 95 | 1008.0 |
| 20260507020401 | 50 | 130 | 1.0 | 0.0 | 0.00 | 0.00 | 0.00 | 95 | 1008.0 |
| 20260507020301 | 50 | 84 | 1.0 | 0.0 | 0.00 | 0.00 | 0.00 | 95 | 1008.0 |
| 20260507020200 | 50 | 210 | 1.0 | 0.0 | 0.00 | 0.00 | 0.00 | 95 | 1008.0 |
| 20260507020100 | 50 | 12 | 1.0 | 0.0 | 0.00 | 0.00 | 0.00 | 95 | 1007.9 |
| 20260507020000 | 50 | 46 | 2.0 | 0.0 | 0.00 | 0.00 | 0.00 | 95 | 1008.1 |
| 20260507015900 | 50 | 219 | 1.0 | 0.0 | 0.00 | 0.00 | 0.00 | 95 | 1008.0 |
| 20260507015800 | 50 | 159 | 1.0 | 0.0 | 0.00 | 0.00 | 0.00 | 95 | 1008.1 |
| 20260507015700 | 50 | 210 | 2.0 | 0.0 | 0.00 | 0.00 | 0.00 | 95 | 1008.1 |
| 20260507015600 | 50 | 215 | 1.0 | 0.0 | 0.00 | 0.00 | 0.00 | 95 | 1007.9 |
| 20260507015500 | 50 | 264 | 1.0 | 0.0 | 0.00 | 0.00 | 0.00 | 95 | 1008.0 |
| 20260507015400 | 50 | 195 | 2.0 | 0.0 | 0.00 | 0.00 | 0.00 | 95 | 1008.1 |
| 20260507015300 | 50 | 127 | 1.0 | 0.0 | 0.00 | 0.00 | 0.00 | 95 | 1008.0 |
| 20260507015200 | 50 | 357 | 1.0 | 0.0 | 0.00 | 0.00 | 0.00 | 95 | 1008.0 |
| 20260507015100 | 50 | 297 | 3.0 | 0.0 | 0.00 | 0.00 | 0.00 | 95 | 1008.0 |
| 20260507015000 | 50 | 68 | 1.0 | 0.0 | 0.00 | 0.00 | 0.00 | 95 | 1007.9 |
| 20260507014900 | 50 | 229 | 0.0 | 0.0 | 0.00 | 0.00 | 0.00 | 95 | 1008.0 |
| 20260507014800 | 50 | 358 | 1.0 | 0.0 | 0.00 | 0.00 | 0.00 | 95 | 1008.0 |
| 20260507014700 | 50 | 213 | 2.0 | 0.0 | 0.00 | 0.00 | 0.00 | 95 | 1007.8 |
| 20260507014600 | 50 | 198 | 2.0 | 0.0 | 0.00 | 0.00 | 0.00 | 95 | 1008.0 |
| 20260507014459 | 51 | 313 | 1.0 | 0.0 | 0.00 | 0.00 | 0.00 | 95 | 1007.8 |
| 20260507014400 | 51 | 320 | 0.0 | 0.0 | 0.00 | 0.00 | 0.00 | 95 | 1007.9 |
| 20260507014259 | 51 | 323 | 2.0 | 0.0 | 0.00 | 0.00 | 0.00 | 95 | 1008.0 |
| 20260507014159 | 51 | 31 | 1.0 | 0.0 | 0.00 | 0.00 | 0.00 | 95 | 1007.9 |
| 20260507014059 | 51 | 260 | 1.0 | 0.0 | 0.00 | 0.00 | 0.00 | 95 | 1007.9 |
| 20260507013959 | 51 | 244 | 2.0 | 0.0 | 0.00 | 0.00 | 0.00 | 95 | 1007.9 |
| 20260507013859 | 51 | 226 | 3.0 | 0.0 | 0.00 | 0.00 | 0.00 | 95 | 1007.8 |
| 20260507013759 | 51 | 22 | 2.0 | 0.0 | 0.00 | 0.00 | 0.00 | 95 | 1007.8 |
| 20260507013659 | 51 | 340 | 2.0 | 0.0 | 0.00 | 0.00 | 0.00 | 95 | 1007.8 |
| 20260507013559 | 51 | 306 | 2.0 | 0.0 | 0.00 | 0.00 | 0.00 | 95 | 1007.9 |
| 20260507013459 | 51 | 309 | 1.0 | 0.0 | 0.00 | 0.00 | 0.00 | 95 | 1007.8 |
| 20260507013359 | 51 | 320 | 2.0 | 0.0 | 0.00 | 0.00 | 0.00 | 95 | 1007.8 |
| 20260507013259 | 51 | 66 | 1.0 | 0.0 | 0.00 | 0.00 | 0.00 | 95 | 1007.9 |
| 20260507013159 | 51 | 242 | 2.0 | 0.0 | 0.00 | 0.00 | 0.00 | 95 | 1007.8 |
| 20260507013059 | 51 | 166 | 1.0 | 0.0 | 0.00 | 0.00 | 0.00 | 95 | 1007.7 |
| 20260507012958 | 51 | 118 | 0.0 | 0.0 | 0.00 | 0.00 | 0.00 | 95 | 1007.8 |
| 20260507012858 | 51 | 100 | 1.0 | 0.0 | 0.00 | 0.00 | 0.00 | 95 | 1007.8 |
| 20260507012758 | 51 | 244 | 2.0 | 0.0 | 0.00 | 0.00 | 0.00 | 95 | 1007.8 |
| 20260507012658 | 51 | 126 | 0.0 | 0.0 | 0.00 | 0.00 | 0.00 | 95 | 1007.7 |
| 20260507012558 | 51 | 251 | 1.0 | 0.0 | 0.00 | 0.00 | 0.00 | 95 | 1007.7 |
| 20260507012458 | 51 | 350 | 1.0 | 0.0 | 0.00 | 0.00 | 0.00 | 95 | 1007.7 |
| 20260507012358 | 51 | 186 | 2.0 | 0.0 | 0.00 | 0.00 | 0.00 | 95 | 1007.7 |
| 20260507012258 | 51 | 329 | 3.0 | 0.0 | 0.00 | 0.00 | 0.00 | 95 | 1007.8 |
| 20260507012158 | 51 | 339 | 1.0 | 0.0 | 0.00 | 0.00 | 0.00 | 95 | 1007.7 |
| 20260507012058 | 51 | 285 | 3.0 | 0.0 | 0.00 | 0.00 | 0.00 | 95 | 1007.8 |
| 20260507011958 | 51 | 36 | 0.0 | 0.0 | 0.00 | 0.00 | 0.00 | 95 | 1007.7 |
| 20260507011858 | 51 | 172 | 1.0 | 0.0 | 0.00 | 0.00 | 0.00 | 95 | 1007.7 |
| 20260507011758 | 51 | 102 | 3.0 | 0.0 | 0.00 | 0.00 | 0.00 | 95 | 1007.7 |
| 20260507011658 | 51 | 222 | 1.0 | 0.0 | 0.00 | 0.00 | 0.00 | 95 | 1007.7 |
| 20260507011558 | 51 | 48 | 1.0 | 0.0 | 0.00 | 0.00 | 0.00 | 95 | 1007.7 |
| 20260507011458 | 51 | 120 | 1.0 | 0.0 | 0.00 | 0.00 | 0.00 | 95 | 1007.8 |
| 20260507011358 | 51 | 293 | 0.0 | 0.0 | 0.00 | 0.00 | 0.00 | 94 | 1007.7 |
| 20260507011258 | 51 | 144 | 1.0 | 0.0 | 0.00 | 0.00 | 0.00 | 95 | 1007.6 |
| 20260507011157 | 51 | 197 | 1.0 | 0.0 | 0.00 | 0.00 | 0.00 | 95 | 1007.7 |
| 20260507011057 | 51 | 229 | 1.0 | 0.0 | 0.00 | 0.00 | 0.00 | 94 | 1007.6 |
| 20260507010957 | 51 | 49 | 3.0 | 0.0 | 0.00 | 0.00 | 0.00 | 94 | 1007.5 |
| 20260507010857 | 51 | 144 | 1.0 | 0.0 | 0.00 | 0.00 | 0.00 | 94 | 1007.5 |
| 20260507010757 | 51 | 161 | 2.0 | 0.0 | 0.00 | 0.00 | 0.00 | 94 | 1007.7 |
| 20260507010657 | 51 | 344 | 2.0 | 0.0 | 0.00 | 0.00 | 0.00 | 94 | 1007.6 |
| 20260507010557 | 51 | 9 | 2.0 | 0.0 | 0.00 | 0.00 | 0.00 | 94 | 1007.6 |
| 20260507010457 | 51 | 166 | 2.0 | 0.0 | 0.00 | 0.00 | 0.00 | 94 | 1007.6 |
| 20260507010357 | 51 | 249 | 2.0 | 0.0 | 0.00 | 0.00 | 0.00 | 94 | 1007.6 |
| 20260507010257 | 51 | 113 | 0.0 | 0.0 | 0.00 | 0.00 | 0.00 | 94 | 1007.7 |
| 20260507010157 | 51 | 288 | 2.0 | 0.0 | 0.00 | 0.00 | 0.00 | 94 | 1007.7 |
| 20260507010057 | 51 | 326 | 1.0 | 0.0 | 0.00 | 0.00 | 0.00 | 94 | 1007.6 |
| 20260507005957 | 51 | 309 | 2.0 | 0.0 | 0.00 | 0.00 | 0.00 | 94 | 1007.5 |
| 20260507005857 | 51 | 230 | 2.0 | 0.0 | 0.00 | 0.00 | 0.00 | 94 | 1007.6 |
| 20260507005757 | 51 | 256 | 1.0 | 0.0 | 0.00 | 0.00 | 0.00 | 94 | 1007.5 |
| 20260507005657 | 51 | 152 | 1.0 | 0.0 | 0.00 | 0.00 | 0.00 | 94 | 1007.5 |
| 20260507005556 | 51 | 135 | 1.0 | 0.0 | 0.00 | 0.00 | 0.00 | 94 | 1007.7 |
| 20260507005456 | 51 | 278 | 1.0 | 0.0 | 0.00 | 0.00 | 0.00 | 94 | 1007.6 |
| 20260507005356 | 51 | 315 | 1.0 | 0.0 | 0.00 | 0.00 | 0.00 | 94 | 1007.7 |
| 20260507005256 | 51 | 5 | 2.0 | 0.0 | 0.00 | 0.00 | 0.00 | 94 | 1007.7 |
| 20260507005156 | 51 | 65 | 1.0 | 0.0 | 0.00 | 0.00 | 0.00 | 94 | 1007.7 |
| 20260507005056 | 51 | 243 | 1.0 | 0.0 | 0.00 | 0.00 | 0.00 | 94 | 1007.6 |
| 20260507004956 | 51 | 224 | 1.0 | 0.0 | 0.00 | 0.00 | 0.00 | 94 | 1007.6 |
| 20260507004856 | 51 | 7 | 1.0 | 0.0 | 0.00 | 0.00 | 0.00 | 94 | 1007.6 |
| 20260507004756 | 51 | 147 | 1.0 | 0.0 | 0.00 | 0.00 | 0.00 | 94 | 1007.7 |
| 20260507004656 | 51 | 8 | 1.0 | 0.0 | 0.00 | 0.00 | 0.00 | 94 | 1007.7 |
| 20260507004556 | 51 | 121 | 0.0 | 0.0 | 0.00 | 0.00 | 0.00 | 94 | 1007.7 |
| 20260507004456 | 51 | 128 | 0.0 | 0.0 | 0.00 | 0.00 | 0.00 | 94 | 1007.6 |
| 20260507004356 | 51 | 89 | 1.0 | 0.0 | 0.00 | 0.00 | 0.00 | 94 | 1007.6 |
| 20260507004256 | 51 | 280 | 1.0 | 0.0 | 0.00 | 0.00 | 0.00 | 94 | 1007.6 |
| 20260507004156 | 51 | 100 | 1.0 | 0.0 | 0.00 | 0.00 | 0.00 | 94 | 1007.6 |
| 20260507004056 | 51 | 63 | 1.0 | 0.0 | 0.00 | 0.00 | 0.00 | 94 | 1007.5 |
| 20260507003955 | 51 | 4 | 0.0 | 0.0 | 0.00 | 0.00 | 0.00 | 94 | 1007.6 |
| 20260507003855 | 51 | 233 | 0.0 | 0.0 | 0.00 | 0.00 | 0.00 | 94 | 1007.6 |
| 20260507003755 | 51 | 119 | 1.0 | 0.0 | 0.00 | 0.00 | 0.00 | 94 | 1007.5 |
| 20260507003655 | 51 | 201 | 1.0 | 0.0 | 0.00 | 0.00 | 0.00 | 94 | 1007.6 |
| 20260507003555 | 51 | 310 | 0.0 | 0.0 | 0.00 | 0.00 | 0.00 | 94 | 1007.6 |
| 20260507003455 | 51 | 345 | 2.0 | 0.0 | 0.00 | 0.00 | 0.00 | 94 | 1007.5 |
| 20260507003355 | 51 | 60 | 1.0 | 0.0 | 0.00 | 0.00 | 0.00 | 94 | 1007.6 |
| 20260507003255 | 51 | 192 | 1.0 | 0.0 | 0.00 | 0.00 | 0.00 | 94 | 1007.6 |
| 20260507003155 | 51 | 140 | 2.0 | 0.0 | 0.00 | 0.00 | 0.00 | 94 | 1007.7 |
| 20260507003055 | 51 | 144 | 1.0 | 0.0 | 0.00 | 0.00 | 0.00 | 94 | 1007.7 |
| 20260507002955 | 51 | 325 | 1.0 | 0.0 | 0.00 | 0.00 | 0.00 | 94 | 1007.6 |
| 20260507002855 | 51 | 224 | 1.0 | 0.0 | 0.00 | 0.00 | 0.00 | 94 | 1007.6 |
| 20260507002755 | 51 | 84 | 2.0 | 0.0 | 0.00 | 0.00 | 0.00 | 94 | 1007.5 |
| 20260507002655 | 51 | 225 | 1.0 | 0.0 | 0.00 | 0.00 | 0.00 | 94 | 1007.6 |
| 20260507002555 | 51 | 74 | 2.0 | 0.0 | 0.00 | 0.00 | 0.00 | 94 | 1007.5 |
| 20260507002455 | 51 | 30 | 2.0 | 0.0 | 0.00 | 0.00 | 0.00 | 94 | 1007.6 |
| 20260507002354 | 51 | 43 | 1.0 | 0.0 | 0.00 | 0.00 | 0.00 | 94 | 1007.5 |
| 20260507002254 | 51 | 26 | 1.0 | 0.0 | 0.00 | 0.00 | 0.00 | 94 | 1007.5 |
| 20260507002154 | 52 | 56 | 1.0 | 0.0 | 0.00 | 0.00 | 0.00 | 94 | 1007.5 |
| 20260507002054 | 52 | 359 | 1.0 | 0.0 | 0.00 | 0.00 | 0.00 | 94 | 1007.5 |
| 20260507001954 | 51 | 126 | 1.0 | 0.0 | 0.00 | 0.00 | 0.00 | 94 | 1007.5 |
| 20260507001854 | 52 | 19 | 4.0 | 0.0 | 0.00 | 0.00 | 0.00 | 94 | 1007.3 |
| 20260507001754 | 52 | 326 | 2.0 | 0.0 | 0.00 | 0.00 | 0.00 | 94 | 1007.5 |
| 20260507001654 | 52 | 135 | 1.0 | 0.0 | 0.00 | 0.00 | 0.00 | 94 | 1007.4 |
| 20260507001554 | 52 | 154 | 3.0 | 0.0 | 0.00 | 0.00 | 0.00 | 94 | 1007.5 |
| 20260507001455 | 52 | 339 | 1.0 | 0.0 | 0.00 | 0.00 | 0.00 | 94 | 1007.3 |
| 20260507001354 | 52 | 108 | 2.0 | 0.0 | 0.00 | 0.00 | 0.00 | 94 | 1007.4 |
| 20260507001254 | 52 | 211 | 1.0 | 0.0 | 0.00 | 0.00 | 0.00 | 94 | 1007.4 |
| 20260507001154 | 52 | 197 | 0.0 | 0.0 | 0.00 | 0.00 | 0.00 | 94 | 1007.5 |
| 20260507001054 | 52 | 176 | 1.0 | 0.0 | 0.00 | 0.00 | 0.00 | 94 | 1007.5 |
| 20260507000954 | 52 | 192 | 0.0 | 0.0 | 0.00 | 0.00 | 0.00 | 94 | 1007.4 |
| 20260507000854 | 52 | 315 | 1.0 | 0.0 | 0.00 | 0.00 | 0.00 | 94 | 1007.4 |
| 20260507000753 | 52 | 115 | 1.0 | 0.0 | 0.00 | 0.00 | 0.00 | 94 | 1007.4 |
| 20260507000653 | 52 | 54 | 1.0 | 0.0 | 0.00 | 0.00 | 0.00 | 94 | 1007.5 |
| 20260507000553 | 52 | 150 | 2.0 | 0.0 | 0.00 | 0.00 | 0.00 | 94 | 1007.4 |
| 20260507000453 | 52 | 149 | 1.0 | 0.0 | 0.00 | 0.00 | 0.00 | 94 | 1007.4 |
| 20260507000353 | 52 | 354 | 1.0 | 0.0 | 0.00 | 0.00 | 0.00 | 94 | 1007.6 |
| 20260507000253 | 52 | 323 | 1.0 | 0.0 | 0.00 | 0.00 | 0.00 | 94 | 1007.5 |
| 20260507000153 | 52 | 148 | 2.0 | 0.0 | 0.00 | 0.00 | 0.00 | 94 | 1007.4 |
| 20260507000053 | 52 | 0 | 1.0 | 0.0 | 0.00 | 0.00 | 0.00 | 94 | 1007.6 |
| 20260506235953 | 52 | 226 | 1.0 | 0.0 | 0.00 | 0.00 | 0.00 | 94 | 1007.5 |
| 20260506235853 | 52 | 222 | 1.0 | 0.0 | 0.00 | 0.00 | 0.00 | 94 | 1007.6 |
| 20260506235753 | 52 | 165 | 1.0 | 0.0 | 0.00 | 0.00 | 0.00 | 94 | 1007.6 |
| 20260506235653 | 52 | 324 | 2.0 | 0.0 | 0.00 | 0.00 | 0.00 | 94 | 1007.5 |
| 20260506235553 | 52 | 299 | 1.0 | 0.0 | 0.00 | 0.00 | 0.00 | 94 | 1007.5 |
| 20260506235453 | 52 | 84 | 1.0 | 0.0 | 0.00 | 0.00 | 0.00 | 94 | 1007.6 |
| 20260506235353 | 52 | 99 | 2.0 | 0.0 | 0.00 | 0.00 | 0.00 | 94 | 1007.5 |
| 20260506235253 | 52 | 205 | 1.0 | 0.0 | 0.00 | 0.00 | 0.00 | 94 | 1007.5 |
| 20260506235153 | 52 | 150 | 2.0 | 0.0 | 0.00 | 0.00 | 0.00 | 94 | 1007.5 |
| 20260506235052 | 52 | 193 | 1.0 | 0.0 | 0.00 | 0.00 | 0.00 | 94 | 1007.6 |
| 20260506234952 | 52 | 1 | 3.0 | 0.0 | 0.00 | 0.00 | 0.00 | 94 | 1007.6 |
| 20260506234852 | 52 | 153 | 1.0 | 0.0 | 0.00 | 0.00 | 0.00 | 94 | 1007.5 |
| 20260506234752 | 52 | 230 | 2.0 | 0.0 | 0.00 | 0.00 | 0.00 | 94 | 1007.6 |
| 20260506234652 | 52 | 135 | 1.0 | 0.0 | 0.00 | 0.00 | 0.00 | 94 | 1007.4 |
| 20260506234552 | 52 | 173 | 0.0 | 0.0 | 0.00 | 0.00 | 0.00 | 94 | 1007.5 |
| 20260506234452 | 52 | 313 | 2.0 | 0.0 | 0.00 | 0.00 | 0.00 | 94 | 1007.4 |
| 20260506234352 | 52 | 49 | 2.0 | 0.0 | 0.00 | 0.00 | 0.00 | 94 | 1007.5 |
| 20260506234252 | 52 | 186 | 1.0 | 0.0 | 0.00 | 0.00 | 0.00 | 94 | 1007.5 |
| 20260506234152 | 52 | 305 | 2.0 | 0.0 | 0.00 | 0.00 | 0.00 | 94 | 1007.5 |
| 20260506234052 | 52 | 16 | 2.0 | 0.0 | 0.00 | 0.00 | 0.00 | 94 | 1007.5 |
| 20260506233952 | 52 | 51 | 1.0 | 0.0 | 0.00 | 0.00 | 0.00 | 94 | 1007.5 |
| 20260506233852 | 52 | 99 | 0.0 | 0.0 | 0.00 | 0.00 | 0.00 | 94 | 1007.5 |
| 20260506233752 | 52 | 62 | 0.0 | 0.0 | 0.00 | 0.00 | 0.00 | 94 | 1007.5 |
| 20260506233652 | 52 | 310 | 1.0 | 0.0 | 0.00 | 0.00 | 0.00 | 94 | 1007.4 |
| 20260506233552 | 52 | 160 | 0.0 | 0.0 | 0.00 | 0.00 | 0.00 | 94 | 1007.5 |
| 20260506233452 | 52 | 240 | 1.0 | 0.0 | 0.00 | 0.00 | 0.00 | 94 | 1007.5 |
| 20260506233351 | 52 | 205 | 0.0 | 0.0 | 0.00 | 0.00 | 0.00 | 94 | 1007.4 |
| 20260506233251 | 52 | 27 | 1.0 | 0.0 | 0.00 | 0.00 | 0.00 | 94 | 1007.4 |
| 20260506233151 | 52 | 354 | 1.0 | 0.0 | 0.00 | 0.00 | 0.00 | 94 | 1007.4 |
| 20260506233051 | 52 | 174 | 1.0 | 0.0 | 0.00 | 0.00 | 0.00 | 94 | 1007.4 |
| 20260506232951 | 52 | 160 | 1.0 | 0.0 | 0.00 | 0.00 | 0.00 | 94 | 1007.4 |
| 20260506232851 | 52 | 89 | 1.0 | 0.0 | 0.00 | 0.00 | 0.00 | 94 | 1007.4 |
| 20260506232751 | 52 | 189 | 0.0 | 0.0 | 0.00 | 0.00 | 0.00 | 94 | 1007.4 |
| 20260506232651 | 52 | 33 | 1.0 | 0.0 | 0.00 | 0.00 | 0.00 | 94 | 1007.4 |
| 20260506232551 | 52 | 204 | 0.0 | 0.0 | 0.00 | 0.00 | 0.00 | 94 | 1007.5 |
| 20260506232451 | 53 | 217 | 0.0 | 0.0 | 0.00 | 0.00 | 0.00 | 94 | 1007.5 |
| 20260506232351 | 53 | 183 | 1.0 | 0.0 | 0.00 | 0.00 | 0.00 | 94 | 1007.4 |
| 20260506232251 | 53 | 196 | 1.0 | 0.0 | 0.00 | 0.00 | 0.00 | 94 | 1007.5 |
| 20260506232151 | 53 | 124 | 2.0 | 0.0 | 0.00 | 0.00 | 0.00 | 94 | 1007.4 |
| 20260506232051 | 53 | 44 | 0.0 | 0.0 | 0.00 | 0.00 | 0.00 | 94 | 1007.4 |
| 20260506231951 | 53 | 97 | 1.0 | 0.0 | 0.00 | 0.00 | 0.00 | 94 | 1007.5 |
| 20260506231851 | 53 | 50 | 0.0 | 0.0 | 0.00 | 0.00 | 0.00 | 94 | 1007.5 |
| 20260506231751 | 53 | 208 | 1.0 | 0.0 | 0.00 | 0.00 | 0.00 | 94 | 1007.4 |
| 20260506231650 | 53 | 48 | 1.0 | 0.0 | 0.00 | 0.00 | 0.00 | 94 | 1007.4 |
| 20260506231550 | 53 | 22 | 0.0 | 0.0 | 0.00 | 0.00 | 0.00 | 94 | 1007.4 |
| 20260506231450 | 53 | 117 | 0.0 | 0.0 | 0.00 | 0.00 | 0.00 | 94 | 1007.4 |
| 20260506231350 | 53 | 16 | 1.0 | 0.0 | 0.00 | 0.00 | 0.00 | 94 | 1007.4 |
| 20260506231250 | 53 | 25 | 0.0 | 0.0 | 0.00 | 0.00 | 0.00 | 94 | 1007.4 |
| 20260506231150 | 53 | 309 | 0.0 | 0.0 | 0.00 | 0.00 | 0.00 | 94 | 1007.4 |
| 20260506231050 | 53 | 277 | 0.0 | 0.0 | 0.00 | 0.00 | 0.00 | 94 | 1007.3 |
| 20260506230950 | 53 | 22 | 0.0 | 0.0 | 0.00 | 0.00 | 0.00 | 94 | 1007.4 |
| 20260506230850 | 53 | 250 | 0.0 | 0.0 | 0.00 | 0.00 | 0.00 | 94 | 1007.4 |
| 20260506230750 | 53 | 212 | 0.0 | 0.0 | 0.00 | 0.00 | 0.00 | 94 | 1007.3 |
| 20260506230650 | 53 | 314 | 1.0 | 0.0 | 0.00 | 0.00 | 0.00 | 94 | 1007.4 |
| 20260506230550 | 53 | 205 | 1.0 | 0.0 | 0.00 | 0.00 | 0.00 | 94 | 1007.4 |
| 20260506230450 | 53 | 209 | 1.0 | 0.0 | 0.00 | 0.00 | 0.00 | 94 | 1007.4 |
| 20260506230350 | 53 | 41 | 1.0 | 0.0 | 0.00 | 0.00 | 0.00 | 94 | 1007.3 |
| 20260506230250 | 53 | 230 | 0.0 | 0.0 | 0.00 | 0.00 | 0.00 | 94 | 1007.3 |
| 20260506230150 | 53 | 240 | 1.0 | 0.0 | 0.00 | 0.00 | 0.00 | 94 | 1007.4 |
| 20260506230049 | 53 | 28 | 1.0 | 0.0 | 0.00 | 0.00 | 0.00 | 94 | 1007.3 |
| 20260506225949 | 53 | 6 | 0.0 | 0.0 | 0.00 | 0.00 | 0.00 | 94 | 1007.4 |
| 20260506225849 | 53 | 92 | 3.0 | 0.0 | 0.00 | 0.00 | 0.00 | 94 | 1007.4 |
| 20260506225749 | 53 | 49 | 1.0 | 0.0 | 0.00 | 0.00 | 0.00 | 94 | 1007.3 |
| 20260506225649 | 53 | 40 | 1.0 | 0.0 | 0.00 | 0.00 | 0.00 | 94 | 1007.4 |
| 20260506225549 | 53 | 206 | 1.0 | 0.0 | 0.00 | 0.00 | 0.00 | 93 | 1007.3 |
| 20260506225449 | 53 | 140 | 0.0 | 0.0 | 0.00 | 0.00 | 0.00 | 93 | 1007.3 |
| 20260506225349 | 53 | 312 | 1.0 | 0.0 | 0.00 | 0.00 | 0.00 | 93 | 1007.4 |
| 20260506225249 | 53 | 295 | 1.0 | 0.0 | 0.00 | 0.00 | 0.00 | 93 | 1007.4 |
| 20260506225149 | 53 | 312 | 1.0 | 0.0 | 0.00 | 0.00 | 0.00 | 93 | 1007.3 |
| 20260506225049 | 53 | 44 | 1.0 | 0.0 | 0.00 | 0.00 | 0.00 | 93 | 1007.3 |
| 20260506224949 | 53 | 253 | 1.0 | 0.0 | 0.00 | 0.00 | 0.00 | 93 | 1007.3 |
| 20260506224849 | 53 | 301 | 2.0 | 0.0 | 0.00 | 0.00 | 0.00 | 93 | 1007.3 |
| 20260506224749 | 53 | 249 | 1.0 | 0.0 | 0.00 | 0.00 | 0.00 | 93 | 1007.3 |
| 20260506224649 | 53 | 6 | 0.0 | 0.0 | 0.00 | 0.00 | 0.00 | 93 | 1007.3 |
| 20260506224549 | 53 | 37 | 1.0 | 0.0 | 0.00 | 0.00 | 0.00 | 93 | 1007.3 |
| 20260506224448 | 53 | 305 | 1.0 | 0.0 | 0.00 | 0.00 | 0.00 | 93 | 1007.4 |
| 20260506224348 | 53 | 224 | 2.0 | 0.0 | 0.00 | 0.00 | 0.00 | 93 | 1007.3 |
| 20260506224248 | 53 | 207 | 0.0 | 0.0 | 0.00 | 0.00 | 0.00 | 93 | 1007.4 |
| 20260506224148 | 53 | 357 | 2.0 | 0.0 | 0.00 | 0.00 | 0.00 | 93 | 1007.3 |
| 20260506224048 | 53 | 265 | 3.0 | 0.0 | 0.00 | 0.00 | 0.00 | 93 | 1007.2 |
| 20260506223948 | 53 | 34 | 1.0 | 0.0 | 0.00 | 0.00 | 0.00 | 93 | 1007.2 |
| 20260506223848 | 53 | 304 | 1.0 | 0.0 | 0.00 | 0.00 | 0.00 | 93 | 1007.2 |
| 20260506223748 | 53 | 322 | 0.0 | 0.0 | 0.00 | 0.00 | 0.00 | 93 | 1007.2 |
| 20260506223648 | 53 | 125 | 0.0 | 0.0 | 0.00 | 0.00 | 0.00 | 93 | 1007.2 |
| 20260506223548 | 53 | 294 | 1.0 | 0.0 | 0.00 | 0.00 | 0.00 | 93 | 1007.2 |
| 20260506223448 | 53 | 47 | 2.0 | 0.0 | 0.00 | 0.00 | 0.00 | 93 | 1007.2 |
| 20260506223348 | 53 | 279 | 1.0 | 0.0 | 0.00 | 0.00 | 0.00 | 93 | 1007.1 |
| 20260506223248 | 53 | 0 | 2.0 | 0.0 | 0.00 | 0.00 | 0.00 | 93 | 1007.2 |
| 20260506223148 | 53 | 296 | 1.0 | 0.0 | 0.00 | 0.00 | 0.00 | 94 | 1007.3 |
| 20260506223048 | 53 | 1 | 1.0 | 0.0 | 0.00 | 0.00 | 0.00 | 94 | 1007.1 |
| 20260506222948 | 53 | 256 | 0.0 | 0.0 | 0.00 | 0.00 | 0.00 | 94 | 1007.1 |
| 20260506222847 | 53 | 159 | 1.0 | 0.0 | 0.00 | 0.00 | 0.00 | 94 | 1007.2 |
| 20260506222747 | 53 | 261 | 1.0 | 0.0 | 0.00 | 0.00 | 0.00 | 94 | 1007.2 |
| 20260506222647 | 53 | 269 | 2.0 | 0.0 | 0.00 | 0.00 | 0.00 | 94 | 1007.1 |
| 20260506222547 | 53 | 342 | 1.0 | 0.0 | 0.00 | 0.00 | 0.00 | 94 | 1007.1 |
| 20260506222447 | 53 | 339 | 1.0 | 0.0 | 0.00 | 0.00 | 0.00 | 94 | 1007.1 |
| 20260506222347 | 53 | 66 | 1.0 | 0.0 | 0.00 | 0.00 | 0.00 | 94 | 1007.1 |
| 20260506222247 | 53 | 68 | 0.0 | 0.0 | 0.00 | 0.00 | 0.00 | 94 | 1007.1 |
| 20260506222147 | 53 | 193 | 0.0 | 0.0 | 0.00 | 0.00 | 0.00 | 94 | 1007.1 |
| 20260506222047 | 53 | 303 | 2.0 | 0.0 | 0.00 | 0.00 | 0.00 | 94 | 1007.1 |
| 20260506221947 | 53 | 180 | 2.0 | 0.0 | 0.00 | 0.00 | 0.00 | 94 | 1007.2 |
| 20260506221847 | 53 | 246 | 2.0 | 0.0 | 0.00 | 0.00 | 0.00 | 94 | 1007.1 |
| 20260506221747 | 53 | 309 | 0.0 | 0.0 | 0.00 | 0.00 | 0.00 | 94 | 1007.1 |
| 20260506221647 | 53 | 159 | 0.0 | 0.0 | 0.00 | 0.00 | 0.00 | 94 | 1007.0 |
| 20260506221547 | 53 | 180 | 0.0 | 0.0 | 0.00 | 0.00 | 0.00 | 94 | 1007.1 |
| 20260506221447 | 53 | 322 | 0.0 | 0.0 | 0.00 | 0.00 | 0.00 | 94 | 1007.0 |
| 20260506221347 | 53 | 173 | 2.0 | 0.0 | 0.00 | 0.00 | 0.00 | 94 | 1007.1 |
| 20260506221247 | 53 | 27 | 2.0 | 0.0 | 0.00 | 0.00 | 0.00 | 95 | 1007.1 |
| 20260506221146 | 53 | 242 | 0.0 | 0.0 | 0.00 | 0.00 | 0.00 | 95 | 1007.1 |
| 20260506221046 | 53 | 89 | 1.0 | 0.0 | 0.00 | 0.00 | 0.00 | 95 | 1007.0 |
| 20260506220946 | 53 | 78 | 1.0 | 0.0 | 0.00 | 0.00 | 0.00 | 95 | 1007.0 |
| 20260506220846 | 53 | 101 | 1.0 | 0.0 | 0.00 | 0.00 | 0.00 | 95 | 1007.1 |
| 20260506220746 | 53 | 79 | 0.0 | 0.0 | 0.00 | 0.00 | 0.00 | 95 | 1007.1 |
| 20260506220646 | 53 | 197 | 1.0 | 0.0 | 0.00 | 0.00 | 0.00 | 95 | 1007.1 |
| 20260506220546 | 53 | 246 | 0.0 | 0.0 | 0.00 | 0.00 | 0.00 | 96 | 1007.0 |
| 20260506220446 | 53 | 205 | 0.0 | 0.0 | 0.00 | 0.00 | 0.00 | 96 | 1007.1 |
| 20260506220346 | 53 | 104 | 1.0 | 0.0 | 0.00 | 0.00 | 0.00 | 96 | 1007.0 |
| 20260506220246 | 53 | 50 | 1.0 | 0.0 | 0.00 | 0.00 | 0.00 | 96 | 1007.0 |
| 20260506220146 | 53 | 252 | 1.0 | 0.0 | 0.00 | 0.00 | 0.00 | 96 | 1007.0 |
| 20260506220046 | 53 | 286 | 1.0 | 0.0 | 0.00 | 0.00 | 0.00 | 96 | 1007.0 |
| 20260506215946 | 53 | 11 | 1.0 | 0.0 | 0.00 | 0.00 | 0.00 | 96 | 1007.0 |
| 20260506215846 | 53 | 154 | 0.0 | 0.0 | 0.00 | 0.00 | 0.00 | 96 | 1007.0 |
| 20260506215746 | 53 | 1 | 0.0 | 0.0 | 0.00 | 0.00 | 0.00 | 96 | 1007.0 |
| 20260506215646 | 53 | 293 | 0.0 | 0.0 | 0.00 | 0.00 | 0.00 | 96 | 1007.0 |
| 20260506215545 | 53 | 293 | 1.0 | 0.0 | 0.00 | 0.00 | 0.00 | 96 | 1007.1 |
| 20260506215445 | 53 | 50 | 0.0 | 0.0 | 0.00 | 0.00 | 0.00 | 96 | 1007.0 |
| 20260506215345 | 53 | 50 | 0.0 | 0.0 | 0.00 | 0.00 | 0.00 | 96 | 1007.1 |
| 20260506215245 | 53 | 62 | 0.0 | 0.0 | 0.00 | 0.00 | 0.00 | 96 | 1007.0 |
| 20260506215145 | 53 | 191 | 0.0 | 0.0 | 0.00 | 0.00 | 0.00 | 96 | 1007.1 |
| 20260506215045 | 53 | 62 | 0.0 | 0.0 | 0.00 | 0.00 | 0.00 | 96 | 1007.0 |
| 20260506214945 | 53 | 89 | 0.0 | 0.0 | 0.00 | 0.00 | 0.00 | 96 | 1007.1 |
| 20260506214845 | 53 | 141 | 0.0 | 0.0 | 0.00 | 0.00 | 0.00 | 96 | 1007.1 |
| 20260506214745 | 53 | 302 | 1.0 | 0.0 | 0.00 | 0.00 | 0.00 | 96 | 1007.1 |
| 20260506214645 | 53 | 170 | 1.0 | 0.0 | 0.00 | 0.00 | 0.00 | 96 | 1007.1 |
| 20260506214545 | 53 | 142 | 0.0 | 0.0 | 0.00 | 0.00 | 0.00 | 96 | 1007.1 |
| 20260506214445 | 53 | 13 | 0.0 | 0.0 | 0.00 | 0.00 | 0.00 | 96 | 1007.0 |
| 20260506214345 | 53 | 13 | 0.0 | 0.0 | 0.00 | 0.00 | 0.00 | 96 | 1007.0 |
| 20260506214245 | 53 | 55 | 0.0 | 0.0 | 0.00 | 0.00 | 0.00 | 96 | 1007.1 |
| 20260506214145 | 53 | 315 | 1.0 | 0.0 | 0.00 | 0.00 | 0.00 | 96 | 1007.0 |
| 20260506214045 | 53 | 238 | 0.0 | 0.0 | 0.00 | 0.00 | 0.00 | 96 | 1007.1 |
| 20260506213945 | 53 | 269 | 0.0 | 0.0 | 0.00 | 0.00 | 0.00 | 96 | 1007.1 |
| 20260506213844 | 53 | 269 | 0.0 | 0.0 | 0.00 | 0.00 | 0.00 | 96 | 1007.1 |
| 20260506213744 | 53 | 269 | 1.0 | 0.0 | 0.00 | 0.00 | 0.00 | 96 | 1007.1 |
| 20260506213644 | 53 | 276 | 0.0 | 0.0 | 0.00 | 0.00 | 0.00 | 96 | 1007.1 |
| 20260506213544 | 53 | 260 | 1.0 | 0.0 | 0.00 | 0.00 | 0.00 | 96 | 1007.1 |
| 20260506213444 | 53 | 38 | 0.0 | 0.0 | 0.00 | 0.00 | 0.00 | 96 | 1007.0 |
| 20260506213344 | 53 | 224 | 0.0 | 0.0 | 0.00 | 0.00 | 0.00 | 96 | 1007.0 |
| 20260506213244 | 53 | 279 | 1.0 | 0.0 | 0.00 | 0.00 | 0.00 | 96 | 1007.1 |
| 20260506213144 | 53 | 116 | 1.0 | 0.0 | 0.00 | 0.00 | 0.00 | 96 | 1007.1 |
| 20260506213044 | 53 | 230 | 0.0 | 0.0 | 0.00 | 0.00 | 0.00 | 96 | 1007.0 |
| 20260506212944 | 53 | 230 | 0.0 | 0.0 | 0.00 | 0.00 | 0.00 | 96 | 1007.0 |
| 20260506212844 | 53 | 89 | 0.0 | 0.0 | 0.00 | 0.00 | 0.00 | 96 | 1007.0 |
| 20260506212744 | 53 | 89 | 0.0 | 0.0 | 0.00 | 0.00 | 0.00 | 96 | 1007.0 |
| 20260506212644 | 53 | 95 | 1.0 | 0.0 | 0.00 | 0.00 | 0.00 | 96 | 1006.9 |
| 20260506212544 | 53 | 103 | 0.0 | 0.0 | 0.00 | 0.00 | 0.00 | 96 | 1006.9 |
| 20260506212444 | 53 | 103 | 0.0 | 0.0 | 0.00 | 0.00 | 0.00 | 96 | 1006.9 |
| 20260506212344 | 53 | 47 | 1.0 | 0.0 | 0.00 | 0.00 | 0.00 | 96 | 1007.0 |
| 20260506212243 | 53 | 57 | 1.0 | 0.0 | 0.00 | 0.00 | 0.00 | 96 | 1006.9 |
| 20260506212143 | 53 | 13 | 1.0 | 0.0 | 0.00 | 0.00 | 0.00 | 96 | 1007.0 |
| 20260506212043 | 53 | 315 | 0.0 | 0.0 | 0.00 | 0.00 | 0.00 | 96 | 1006.9 |
| 20260506211943 | 53 | 322 | 1.0 | 0.0 | 0.00 | 0.00 | 0.00 | 96 | 1006.9 |
| 20260506211843 | 53 | 50 | 1.0 | 0.0 | 0.00 | 0.00 | 0.00 | 96 | 1007.0 |
| 20260506211743 | 53 | 13 | 1.0 | 0.0 | 0.00 | 0.00 | 0.00 | 96 | 1006.9 |
| 20260506211643 | 53 | 32 | 0.0 | 0.0 | 0.00 | 0.00 | 0.00 | 96 | 1006.9 |
| 20260506211543 | 53 | 115 | 0.0 | 0.0 | 0.00 | 0.00 | 0.00 | 96 | 1007.0 |
| 20260506211443 | 53 | 129 | 0.0 | 0.0 | 0.00 | 0.00 | 0.00 | 96 | 1006.9 |
| 20260506211343 | 53 | 133 | 0.0 | 0.0 | 0.00 | 0.00 | 0.00 | 96 | 1006.9 |
| 20260506211243 | 53 | 135 | 0.0 | 0.0 | 0.00 | 0.00 | 0.00 | 96 | 1006.9 |
| 20260506211143 | 53 | 146 | 0.0 | 0.0 | 0.00 | 0.00 | 0.00 | 96 | 1006.9 |
| 20260506211043 | 53 | 193 | 0.0 | 0.0 | 0.00 | 0.00 | 0.00 | 96 | 1006.8 |
| 20260506210943 | 53 | 150 | 1.0 | 0.0 | 0.00 | 0.00 | 0.00 | 96 | 1006.9 |
| 20260506210843 | 53 | 212 | 0.0 | 0.0 | 0.00 | 0.00 | 0.00 | 96 | 1006.9 |
| 20260506210743 | 53 | 218 | 1.0 | 0.0 | 0.00 | 0.00 | 0.00 | 96 | 1006.8 |
| 20260506210643 | 53 | 232 | 0.0 | 0.0 | 0.00 | 0.00 | 0.00 | 96 | 1006.8 |
| 20260506210542 | 53 | 199 | 0.0 | 0.0 | 0.00 | 0.00 | 0.00 | 96 | 1006.8 |
| 20260506210442 | 53 | 315 | 0.0 | 0.0 | 0.00 | 0.00 | 0.00 | 96 | 1006.8 |
| 20260506210342 | 53 | 315 | 0.0 | 0.0 | 0.00 | 0.00 | 0.00 | 96 | 1006.8 |
| 20260506210242 | 53 | 315 | 0.0 | 0.0 | 0.00 | 0.00 | 0.00 | 96 | 1006.7 |
| 20260506210142 | 53 | 257 | 0.0 | 0.0 | 0.00 | 0.00 | 0.00 | 96 | 1006.7 |
| 20260506210042 | 53 | 135 | 0.0 | 0.0 | 0.00 | 0.00 | 0.00 | 96 | 1006.8 |
| 20260506205942 | 53 | 204 | 0.0 | 0.0 | 0.00 | 0.00 | 0.00 | 96 | 1006.8 |
| 20260506205842 | 53 | 101 | 0.0 | 0.0 | 0.00 | 0.00 | 0.00 | 96 | 1006.7 |
| 20260506205742 | 53 | 135 | 0.0 | 0.0 | 0.00 | 0.00 | 0.00 | 96 | 1006.7 |
| 20260506205642 | 53 | 135 | 0.0 | 0.0 | 0.00 | 0.00 | 0.00 | 96 | 1006.7 |
| 20260506205542 | 53 | 135 | 0.0 | 0.0 | 0.00 | 0.00 | 0.00 | 96 | 1006.8 |
| 20260506205442 | 53 | 135 | 0.0 | 0.0 | 0.00 | 0.00 | 0.00 | 96 | 1006.7 |
| 20260506205342 | 53 | 55 | 0.0 | 0.0 | 0.00 | 0.00 | 0.00 | 96 | 1006.8 |
| 20260506205242 | 53 | 336 | 0.0 | 0.0 | 0.00 | 0.00 | 0.00 | 96 | 1006.7 |
| 20260506205142 | 53 | 336 | 0.0 | 0.0 | 0.00 | 0.00 | 0.00 | 96 | 1006.8 |
| 20260506205042 | 53 | 154 | 0.0 | 0.0 | 0.00 | 0.00 | 0.00 | 96 | 1006.8 |
| 20260506204942 | 53 | 135 | 0.0 | 0.0 | 0.00 | 0.00 | 0.00 | 96 | 1006.8 |
| 20260506204841 | 53 | 135 | 0.0 | 0.0 | 0.00 | 0.00 | 0.00 | 96 | 1006.8 |
| 20260506204741 | 53 | 76 | 0.0 | 0.0 | 0.00 | 0.00 | 0.00 | 96 | 1006.9 |
| 20260506204641 | 53 | 119 | 0.0 | 0.0 | 0.00 | 0.00 | 0.00 | 96 | 1006.8 |
| 20260506204541 | 53 | 347 | 0.0 | 0.0 | 0.00 | 0.00 | 0.00 | 96 | 1006.8 |
| 20260506204441 | 53 | 297 | 0.0 | 0.0 | 0.00 | 0.00 | 0.00 | 96 | 1006.7 |
| 20260506204341 | 53 | 297 | 0.0 | 0.0 | 0.00 | 0.00 | 0.00 | 96 | 1006.7 |
| 20260506204241 | 53 | 129 | 0.0 | 0.0 | 0.00 | 0.00 | 0.00 | 96 | 1006.7 |
| 20260506204141 | 53 | 77 | 0.0 | 0.0 | 0.00 | 0.00 | 0.00 | 95 | 1006.7 |
| 20260506204041 | 53 | 69 | 0.0 | 0.0 | 0.00 | 0.00 | 0.00 | 95 | 1006.7 |
| 20260506203941 | 53 | 135 | 0.0 | 0.0 | 0.00 | 0.00 | 0.00 | 95 | 1006.7 |
| 20260506203841 | 53 | 68 | 0.0 | 0.0 | 0.00 | 0.00 | 0.00 | 95 | 1006.7 |
| 20260506203741 | 53 | 44 | 0.0 | 0.0 | 0.00 | 0.00 | 0.00 | 95 | 1006.7 |
| 20260506203641 | 53 | 50 | 0.0 | 0.0 | 0.00 | 0.00 | 0.00 | 95 | 1006.7 |
| 20260506203541 | 53 | 50 | 1.0 | 0.0 | 0.00 | 0.00 | 0.00 | 95 | 1006.7 |
| 20260506203441 | 53 | 53 | 1.0 | 0.0 | 0.00 | 0.00 | 0.00 | 95 | 1006.8 |
| 20260506203341 | 53 | 66 | 0.0 | 0.0 | 0.00 | 0.00 | 0.00 | 95 | 1006.7 |
| 20260506203240 | 53 | 57 | 1.0 | 0.0 | 0.00 | 0.00 | 0.00 | 95 | 1006.8 |
| 20260506203140 | 53 | 55 | 1.0 | 0.0 | 0.00 | 0.00 | 0.00 | 95 | 1006.8 |
| 20260506203040 | 54 | 77 | 0.0 | 0.0 | 0.00 | 0.00 | 0.00 | 95 | 1006.7 |
| 20260506202940 | 54 | 74 | 0.0 | 0.0 | 0.00 | 0.00 | 0.00 | 95 | 1006.8 |
| 20260506202840 | 54 | 188 | 0.0 | 0.0 | 0.00 | 0.00 | 0.00 | 95 | 1006.7 |
| 20260506202740 | 54 | 188 | 1.0 | 0.0 | 0.00 | 0.00 | 0.00 | 95 | 1006.7 |
| 20260506202640 | 54 | 192 | 0.0 | 0.0 | 0.00 | 0.00 | 0.00 | 95 | 1006.7 |
| 20260506202540 | 54 | 184 | 0.0 | 0.0 | 0.00 | 0.00 | 0.00 | 95 | 1006.7 |
| 20260506202440 | 54 | 179 | 0.0 | 0.0 | 0.00 | 0.00 | 0.00 | 95 | 1006.7 |
| 20260506202340 | 54 | 205 | 0.0 | 0.0 | 0.00 | 0.00 | 0.00 | 95 | 1006.8 |
| 20260506202240 | 54 | 287 | 1.0 | 0.0 | 0.00 | 0.00 | 0.00 | 95 | 1006.7 |
| 20260506202140 | 54 | 315 | 0.0 | 0.0 | 0.00 | 0.00 | 0.00 | 95 | 1006.7 |
| 20260506202040 | 54 | 315 | 0.0 | 0.0 | 0.00 | 0.00 | 0.00 | 95 | 1006.9 |
| 20260506201940 | 54 | 315 | 0.0 | 0.0 | 0.00 | 0.00 | 0.00 | 95 | 1006.8 |
| 20260506201840 | 54 | 315 | 0.0 | 0.0 | 0.00 | 0.00 | 0.00 | 95 | 1006.8 |
| 20260506201740 | 54 | 315 | 0.0 | 0.0 | 0.00 | 0.00 | 0.00 | 95 | 1006.8 |
| 20260506201639 | 54 | 315 | 0.0 | 0.0 | 0.00 | 0.00 | 0.00 | 95 | 1006.7 |
| 20260506201539 | 54 | 315 | 0.0 | 0.0 | 0.00 | 0.00 | 0.00 | 95 | 1006.7 |
| 20260506201439 | 54 | 315 | 0.0 | 0.0 | 0.00 | 0.00 | 0.00 | 95 | 1006.8 |
| 20260506201339 | 54 | 315 | 0.0 | 0.0 | 0.00 | 0.00 | 0.00 | 95 | 1006.8 |
| 20260506201239 | 54 | 309 | 0.0 | 0.0 | 0.00 | 0.00 | 0.00 | 95 | 1006.8 |
| 20260506201139 | 54 | 309 | 0.0 | 0.0 | 0.00 | 0.00 | 0.00 | 95 | 1006.8 |
| 20260506201039 | 54 | 36 | 0.0 | 0.0 | 0.00 | 0.00 | 0.00 | 95 | 1006.7 |
| 20260506200939 | 54 | 50 | 0.0 | 0.0 | 0.00 | 0.00 | 0.00 | 94 | 1006.7 |
| 20260506200839 | 54 | 77 | 1.0 | 0.0 | 0.00 | 0.00 | 0.00 | 94 | 1006.7 |
| 20260506200739 | 54 | 315 | 0.0 | 0.0 | 0.00 | 0.00 | 0.00 | 94 | 1006.7 |
| 20260506200639 | 54 | 315 | 0.0 | 0.0 | 0.00 | 0.00 | 0.00 | 94 | 1006.7 |
| 20260506200539 | 54 | 315 | 0.0 | 0.0 | 0.00 | 0.00 | 0.00 | 94 | 1006.6 |
| 20260506200439 | 54 | 315 | 0.0 | 0.0 | 0.00 | 0.00 | 0.00 | 94 | 1006.6 |
| 20260506200339 | 54 | 315 | 0.0 | 0.0 | 0.00 | 0.00 | 0.00 | 94 | 1006.7 |
| 20260506200239 | 54 | 315 | 0.0 | 0.0 | 0.00 | 0.00 | 0.00 | 94 | 1006.7 |
| 20260506200139 | 54 | 315 | 0.0 | 0.0 | 0.00 | 0.00 | 0.00 | 94 | 1006.6 |
| 20260506200038 | 54 | 315 | 0.0 | 0.0 | 0.00 | 0.00 | 0.00 | 94 | 1006.7 |
| 20260506195938 | 54 | 315 | 0.0 | 0.0 | 0.00 | 0.00 | 0.00 | 94 | 1006.7 |
| 20260506195838 | 54 | 315 | 0.0 | 0.0 | 0.00 | 0.00 | 0.00 | 94 | 1006.7 |
| 20260506195738 | 54 | 315 | 0.0 | 0.0 | 0.00 | 0.00 | 0.00 | 94 | 1006.6 |
| 20260506195638 | 54 | 315 | 0.0 | 0.0 | 0.00 | 0.00 | 0.00 | 94 | 1006.6 |
| 20260506195538 | 54 | 315 | 0.0 | 0.0 | 0.00 | 0.00 | 0.00 | 94 | 1006.6 |
| 20260506195438 | 54 | 80 | 0.0 | 0.0 | 0.00 | 0.00 | 0.00 | 94 | 1006.6 |
| 20260506195338 | 54 | 80 | 0.0 | 0.0 | 0.00 | 0.00 | 0.00 | 94 | 1006.5 |
| 20260506195238 | 54 | 80 | 0.0 | 0.0 | 0.00 | 0.00 | 0.00 | 94 | 1006.5 |
| 20260506195138 | 54 | 80 | 0.0 | 0.0 | 0.00 | 0.00 | 0.00 | 94 | 1006.5 |
| 20260506195038 | 54 | 80 | 0.0 | 0.0 | 0.00 | 0.00 | 0.00 | 94 | 1006.5 |
| 20260506194938 | 54 | 89 | 1.0 | 0.0 | 0.00 | 0.00 | 0.00 | 94 | 1006.6 |
| 20260506194838 | 54 | 52 | 0.0 | 0.0 | 0.00 | 0.00 | 0.00 | 94 | 1006.5 |
| 20260506194738 | 54 | 62 | 0.0 | 0.0 | 0.00 | 0.00 | 0.00 | 94 | 1006.6 |
| 20260506194638 | 54 | 62 | 0.0 | 0.0 | 0.00 | 0.00 | 0.00 | 94 | 1006.6 |
| 20260506194538 | 54 | 50 | 0.0 | 0.0 | 0.00 | 0.00 | 0.00 | 94 | 1006.6 |
| 20260506194438 | 54 | 224 | 0.0 | 0.0 | 0.00 | 0.00 | 0.00 | 94 | 1006.6 |
| 20260506194337 | 54 | 224 | 0.0 | 0.0 | 0.00 | 0.00 | 0.00 | 94 | 1006.5 |
| 20260506194237 | 54 | 183 | 0.0 | 0.0 | 0.00 | 0.00 | 0.00 | 94 | 1006.5 |
| 20260506194137 | 54 | 224 | 0.0 | 0.0 | 0.00 | 0.00 | 0.00 | 94 | 1006.5 |
| 20260506194037 | 54 | 154 | 0.0 | 0.0 | 0.00 | 0.00 | 0.00 | 94 | 1006.3 |
| 20260506193937 | 54 | 297 | 0.0 | 0.0 | 0.00 | 0.00 | 0.00 | 94 | 1006.3 |
| 20260506193837 | 54 | 297 | 0.0 | 0.0 | 0.00 | 0.00 | 0.00 | 94 | 1006.6 |
| 20260506193737 | 54 | 297 | 0.0 | 0.0 | 0.00 | 0.00 | 0.00 | 94 | 1006.3 |
| 20260506193637 | 54 | 297 | 0.0 | 0.0 | 0.00 | 0.00 | 0.00 | 94 | 1006.5 |
| 20260506193537 | 54 | 260 | 0.0 | 0.0 | 0.00 | 0.00 | 0.00 | 94 | 1006.3 |
| 20260506193437 | 54 | 310 | 0.0 | 0.0 | 0.00 | 0.00 | 0.00 | 94 | 1006.3 |
| 20260506193337 | 54 | 310 | 0.0 | 0.0 | 0.00 | 0.00 | 0.00 | 94 | 1006.3 |
| 20260506193237 | 54 | 310 | 0.0 | 0.0 | 0.00 | 0.00 | 0.00 | 94 | 1006.3 |
| 20260506193137 | 54 | 312 | 1.0 | 0.0 | 0.00 | 0.00 | 0.00 | 94 | 1006.3 |
| 20260506193037 | 54 | 52 | 0.0 | 0.0 | 0.00 | 0.00 | 0.00 | 94 | 1006.2 |
| 20260506192937 | 54 | 94 | 0.0 | 0.0 | 0.00 | 0.00 | 0.00 | 94 | 1006.2 |
| 20260506192837 | 54 | 167 | 1.0 | 0.0 | 0.00 | 0.00 | 0.00 | 94 | 1006.1 |
| 20260506192736 | 54 | 221 | 1.0 | 0.0 | 0.00 | 0.00 | 0.00 | 94 | 1006.2 |
| 20260506192636 | 54 | 135 | 0.0 | 0.0 | 0.00 | 0.00 | 0.00 | 94 | 1006.2 |
| 20260506192536 | 54 | 44 | 0.0 | 0.0 | 0.00 | 0.00 | 0.00 | 94 | 1006.2 |
| 20260506192436 | 54 | 93 | 1.0 | 0.0 | 0.00 | 0.00 | 0.00 | 93 | 1006.1 |
| 20260506192336 | 54 | 48 | 0.0 | 0.0 | 0.00 | 0.00 | 0.00 | 93 | 1006.1 |
| 20260506192236 | 54 | 212 | 0.0 | 0.0 | 0.00 | 0.00 | 0.00 | 93 | 1006.1 |
| 20260506192136 | 54 | 66 | 0.0 | 0.0 | 0.00 | 0.00 | 0.00 | 93 | 1006.1 |
| 20260506192036 | 54 | 135 | 1.0 | 0.0 | 0.00 | 0.00 | 0.00 | 93 | 1006.1 |
| 20260506191936 | 54 | 139 | 1.0 | 0.0 | 0.00 | 0.00 | 0.00 | 93 | 1006.1 |
| 20260506191836 | 54 | 197 | 1.0 | 0.0 | 0.00 | 0.00 | 0.00 | 93 | 1006.1 |
| 20260506191736 | 54 | 180 | 0.0 | 0.0 | 0.00 | 0.00 | 0.00 | 93 | 1006.1 |
| 20260506191636 | 54 | 180 | 0.0 | 0.0 | 0.00 | 0.00 | 0.00 | 93 | 1006.1 |
| 20260506191536 | 54 | 129 | 0.0 | 0.0 | 0.00 | 0.00 | 0.00 | 93 | 1006.1 |
| 20260506191436 | 54 | 229 | 0.0 | 0.0 | 0.00 | 0.00 | 0.00 | 93 | 1006.0 |
| 20260506191336 | 54 | 224 | 0.0 | 0.0 | 0.00 | 0.00 | 0.00 | 93 | 1006.1 |
| 20260506191235 | 54 | 224 | 0.0 | 0.0 | 0.00 | 0.00 | 0.00 | 93 | 1006.0 |
| 20260506191135 | 54 | 62 | 0.0 | 0.0 | 0.00 | 0.00 | 0.00 | 93 | 1006.1 |
| 20260506191035 | 54 | 62 | 0.0 | 0.0 | 0.00 | 0.00 | 0.00 | 93 | 1006.0 |
| 20260506190935 | 54 | 62 | 0.0 | 0.0 | 0.00 | 0.00 | 0.00 | 93 | 1006.1 |
| 20260506190835 | 54 | 62 | 0.0 | 0.0 | 0.00 | 0.00 | 0.00 | 93 | 1006.1 |
| 20260506190735 | 54 | 62 | 0.0 | 0.0 | 0.00 | 0.00 | 0.00 | 93 | 1006.0 |
| 20260506190635 | 54 | 80 | 1.0 | 0.0 | 0.00 | 0.00 | 0.00 | 93 | 1006.1 |
| 20260506190535 | 54 | 118 | 0.0 | 0.0 | 0.00 | 0.00 | 0.00 | 93 | 1006.0 |
| 20260506190435 | 54 | 218 | 0.0 | 0.0 | 0.00 | 0.00 | 0.00 | 93 | 1006.0 |
| 20260506190335 | 54 | 218 | 0.0 | 0.0 | 0.00 | 0.00 | 0.00 | 93 | 1005.9 |
| 20260506190235 | 54 | 218 | 0.0 | 0.0 | 0.00 | 0.00 | 0.00 | 93 | 1005.9 |
| 20260506190135 | 54 | 218 | 1.0 | 0.0 | 0.00 | 0.00 | 0.00 | 93 | 1005.9 |
| 20260506190035 | 54 | 256 | 0.0 | 3.0 | 0.00 | 0.00 | 0.00 | 93 | 1005.9 |
| 20260506185935 | 55 | 286 | 2.0 | 3.0 | 0.00 | 0.00 | 0.00 | 93 | 1005.9 |
| 20260506185835 | 55 | 286 | 2.0 | 0.0 | 0.00 | 0.00 | 0.00 | 93 | 1005.9 |
| 20260506185735 | 55 | 326 | 0.0 | 0.0 | 0.00 | 0.00 | 0.00 | 93 | 1005.9 |
| 20260506185634 | 55 | 315 | 0.0 | 0.0 | 0.00 | 0.00 | 0.00 | 93 | 1005.9 |
| 20260506185534 | 55 | 310 | 1.0 | 0.0 | 0.00 | 0.00 | 0.00 | 93 | 1005.9 |
| 20260506185434 | 55 | 89 | 0.0 | 0.0 | 0.00 | 0.00 | 0.00 | 93 | 1005.9 |
| 20260506185334 | 55 | 119 | 0.0 | 0.0 | 0.00 | 0.00 | 0.00 | 92 | 1005.8 |
| 20260506185234 | 55 | 119 | 1.0 | 0.0 | 0.00 | 0.00 | 0.00 | 92 | 1005.8 |
| 20260506185134 | 55 | 168 | 0.0 | 0.0 | 0.00 | 0.00 | 0.00 | 92 | 1005.8 |
| 20260506185034 | 55 | 74 | 0.0 | 0.0 | 0.00 | 0.00 | 0.00 | 92 | 1005.7 |
| 20260506184934 | 55 | 103 | 1.0 | 0.0 | 0.00 | 0.00 | 0.00 | 92 | 1005.7 |
| 20260506184834 | 55 | 68 | 1.0 | 0.0 | 0.00 | 0.00 | 0.00 | 92 | 1005.8 |
| 20260506184734 | 55 | 77 | 0.0 | 0.0 | 0.00 | 0.00 | 0.00 | 92 | 1005.7 |
| 20260506184634 | 55 | 76 | 0.0 | 0.0 | 0.00 | 0.00 | 0.00 | 92 | 1005.7 |
| 20260506184534 | 55 | 76 | 0.0 | 0.0 | 0.00 | 0.00 | 0.00 | 91 | 1005.8 |
| 20260506184434 | 55 | 76 | 0.0 | 0.0 | 0.00 | 0.00 | 0.00 | 91 | 1005.6 |
| 20260506184334 | 55 | 76 | 0.0 | 0.0 | 0.00 | 0.00 | 0.00 | 91 | 1005.5 |
| 20260506184234 | 55 | 62 | 0.0 | 0.0 | 0.00 | 0.00 | 0.00 | 91 | 1005.5 |
| 20260506184134 | 55 | 62 | 0.0 | 0.0 | 0.00 | 0.00 | 0.00 | 91 | 1005.5 |
| 20260506184034 | 55 | 240 | 0.0 | 0.0 | 0.00 | 0.00 | 0.00 | 91 | 1005.4 |
| 20260506183933 | 55 | 240 | 0.0 | 0.0 | 0.00 | 0.00 | 0.00 | 91 | 1005.4 |
| 20260506183833 | 55 | 55 | 0.0 | 0.0 | 0.00 | 0.00 | 0.00 | 91 | 1005.4 |
| 20260506183733 | 55 | 252 | 0.0 | 0.0 | 0.00 | 0.00 | 0.00 | 90 | 1005.3 |
| 20260506183633 | 55 | 299 | 1.0 | 0.0 | 0.00 | 0.00 | 0.00 | 90 | 1005.4 |
| 20260506183533 | 55 | 242 | 1.0 | 0.0 | 0.00 | 0.00 | 0.00 | 90 | 1005.3 |
| 20260506183433 | 55 | 319 | 1.0 | 0.0 | 0.00 | 0.00 | 0.00 | 90 | 1005.2 |
| 20260506183333 | 55 | 315 | 0.0 | 0.0 | 0.00 | 0.00 | 0.00 | 90 | 1005.1 |
| 20260506183233 | 55 | 299 | 2.0 | 0.0 | 0.00 | 0.00 | 0.00 | 89 | 1005.1 |
| 20260506183133 | 55 | 269 | 2.0 | 0.0 | 0.00 | 0.00 | 0.00 | 90 | 1005.2 |
| 20260506183033 | 55 | 254 | 2.0 | 0.0 | 0.00 | 0.00 | 0.00 | 89 | 1005.2 |
| 20260506182933 | 55 | 232 | 0.0 | 0.0 | 0.00 | 0.00 | 0.00 | 89 | 1005.2 |
| 20260506182833 | 55 | 191 | 0.0 | 0.0 | 0.00 | 0.00 | 0.00 | 89 | 1005.0 |
| 20260506182733 | 55 | 175 | 0.0 | 0.0 | 0.00 | 0.00 | 0.00 | 89 | 1005.1 |
| 20260506182633 | 55 | 142 | 1.0 | 0.0 | 0.00 | 0.00 | 0.00 | 91 | 1005.1 |
| 20260506182533 | 55 | 44 | 0.0 | 0.0 | 0.00 | 0.00 | 0.00 | 91 | 1005.0 |
| 20260506182433 | 55 | 89 | 0.0 | 0.0 | 0.00 | 0.00 | 0.00 | 91 | 1005.1 |
| 20260506182333 | 55 | 89 | 0.0 | 0.0 | 0.00 | 0.00 | 0.00 | 91 | 1005.1 |
| 20260506182232 | 55 | 77 | 0.0 | 0.0 | 0.00 | 0.00 | 0.00 | 91 | 1005.1 |
| 20260506182132 | 55 | 50 | 0.0 | 0.0 | 0.00 | 0.00 | 0.00 | 91 | 1005.1 |
| 20260506182032 | 55 | 318 | 1.0 | 0.0 | 0.00 | 0.00 | 0.00 | 91 | 1005.1 |
| 20260506181932 | 55 | 269 | 0.0 | 0.0 | 0.00 | 0.00 | 0.00 | 91 | 1005.0 |
| 20260506181832 | 55 | 279 | 1.0 | 0.0 | 0.00 | 0.00 | 0.00 | 91 | 1005.2 |
| 20260506181732 | 55 | 309 | 0.0 | 0.0 | 0.00 | 0.00 | 0.00 | 91 | 1005.1 |
| 20260506181632 | 55 | 290 | 0.0 | 0.0 | 0.00 | 0.00 | 0.00 | 90 | 1005.1 |
| 20260506181532 | 55 | 290 | 0.0 | 0.0 | 0.00 | 0.00 | 0.00 | 90 | 1005.2 |
| 20260506181432 | 55 | 304 | 1.0 | 0.0 | 0.00 | 0.00 | 0.00 | 90 | 1005.2 |
| 20260506181332 | 55 | 79 | 1.0 | 0.0 | 0.00 | 0.00 | 0.00 | 90 | 1005.1 |
| 20260506181232 | 55 | 112 | 2.0 | 0.0 | 0.00 | 0.00 | 0.00 | 90 | 1005.1 |
| 20260506181132 | 55 | 154 | 0.0 | 0.0 | 0.00 | 0.00 | 0.00 | 90 | 1005.1 |
| 20260506181032 | 55 | 283 | 0.0 | 0.0 | 0.00 | 0.00 | 0.00 | 90 | 1005.0 |
| 20260506180932 | 55 | 185 | 0.0 | 0.0 | 0.00 | 0.00 | 0.00 | 90 | 1005.1 |
| 20260506180832 | 55 | 142 | 0.0 | 0.0 | 0.00 | 0.00 | 0.00 | 90 | 1005.0 |
| 20260506180732 | 55 | 175 | 0.0 | 0.0 | 0.00 | 0.00 | 0.00 | 90 | 1005.0 |
| 20260506180631 | 55 | 101 | 0.0 | 0.0 | 0.00 | 0.00 | 0.00 | 90 | 1004.9 |
| 20260506180531 | 55 | 315 | 0.0 | 0.0 | 0.00 | 0.00 | 0.00 | 89 | 1004.9 |
| 20260506180431 | 55 | 212 | 0.0 | 0.0 | 0.00 | 0.00 | 0.00 | 90 | 1004.9 |
| 20260506180331 | 55 | 212 | 0.0 | 0.0 | 0.00 | 0.00 | 0.00 | 90 | 1005.0 |
| 20260506180231 | 55 | 198 | 1.0 | 0.0 | 0.00 | 0.00 | 0.00 | 91 | 1004.9 |
| 20260506180131 | 55 | 315 | 0.0 | 0.0 | 0.00 | 0.00 | 0.00 | 90 | 1004.9 |
| 20260506180031 | 55 | 209 | 0.0 | 0.0 | 0.00 | 0.00 | 0.00 | 90 | 1004.8 |
| 20260506175931 | 55 | 209 | 1.0 | 0.0 | 0.00 | 0.00 | 0.00 | 91 | 1004.8 |
| 20260506175831 | 55 | 142 | 0.0 | 0.0 | 0.00 | 0.00 | 0.00 | 91 | 1004.9 |
| 20260506175731 | 55 | 147 | 1.0 | 0.0 | 0.00 | 0.00 | 0.00 | 91 | 1004.9 |
| 20260506175631 | 55 | 143 | 1.0 | 0.0 | 0.00 | 0.00 | 0.00 | 91 | 1004.9 |
| 20260506175531 | 55 | 124 | 0.0 | 0.0 | 0.00 | 0.00 | 0.00 | 91 | 1004.9 |
| 20260506175431 | 55 | 309 | 1.0 | 0.0 | 0.00 | 0.00 | 0.00 | 91 | 1004.9 |
| 20260506175331 | 55 | 297 | 1.0 | 0.0 | 0.00 | 0.00 | 0.00 | 91 | 1004.8 |
| 20260506175231 | 55 | 288 | 1.0 | 0.0 | 0.00 | 0.00 | 0.00 | 91 | 1005.0 |
| 20260506175131 | 55 | 311 | 0.0 | 0.0 | 0.00 | 0.00 | 0.00 | 91 | 1004.9 |
| 20260506175122 | 55 | 322 | 0.0 | 0.0 | 0.00 | 0.00 | 0.00 | 90 | 1005.0 |
| 20260506174930 | 55 | 307 | 0.0 | 0.0 | 0.00 | 0.00 | 0.00 | 90 | 1005.0 |
| 20260506174830 | 55 | 322 | 1.0 | 0.0 | 0.00 | 0.00 | 0.00 | 90 | 1004.9 |
| 20260506174730 | 55 | 309 | 1.0 | 0.0 | 0.00 | 0.00 | 0.00 | 90 | 1005.0 |
| 20260506174630 | 55 | 17 | 1.0 | 0.0 | 0.00 | 0.00 | 0.00 | 90 | 1005.0 |
| 20260506174530 | 55 | 43 | 1.0 | 0.0 | 0.00 | 0.00 | 0.00 | 90 | 1005.0 |
| 20260506174430 | 55 | 71 | 1.0 | 0.0 | 0.00 | 0.00 | 0.00 | 90 | 1005.0 |
| 20260506174330 | 55 | 286 | 0.0 | 0.0 | 0.00 | 0.00 | 0.00 | 91 | 1005.1 |
| 20260506174230 | 55 | 333 | 1.0 | 0.0 | 0.00 | 0.00 | 0.00 | 91 | 1005.1 |
| 20260506174130 | 55 | 307 | 1.0 | 0.0 | 0.00 | 0.00 | 0.00 | 91 | 1005.1 |
| 20260506174030 | 55 | 245 | 1.0 | 0.0 | 0.00 | 0.00 | 0.00 | 91 | 1005.2 |
| 20260506173930 | 55 | 230 | 0.0 | 0.0 | 0.00 | 0.00 | 0.00 | 91 | 1005.1 |
| 20260506173830 | 55 | 174 | 1.0 | 0.0 | 0.00 | 0.00 | 0.00 | 91 | 1005.0 |
| 20260506173730 | 55 | 233 | 1.0 | 0.0 | 0.00 | 0.00 | 0.00 | 91 | 1005.2 |
| 20260506173630 | 55 | 292 | 2.0 | 0.0 | 0.00 | 0.00 | 0.00 | 91 | 1005.0 |
| 20260506173530 | 55 | 300 | 2.0 | 0.0 | 0.00 | 0.00 | 0.00 | 91 | 1005.0 |
| 20260506173430 | 55 | 276 | 3.0 | 0.0 | 0.00 | 0.00 | 0.00 | 91 | 1005.0 |
| 20260506173330 | 55 | 294 | 4.0 | 0.0 | 0.00 | 0.00 | 0.00 | 91 | 1005.0 |
| 20260506173229 | 55 | 168 | 2.0 | 0.0 | 0.00 | 0.00 | 0.00 | 91 | 1005.0 |
| 20260506173129 | 55 | 272 | 1.0 | 0.0 | 0.00 | 0.00 | 0.00 | 91 | 1004.8 |
| 20260506173029 | 55 | 258 | 1.0 | 0.0 | 0.00 | 0.00 | 0.00 | 91 | 1004.8 |
| 20260506172929 | 55 | 309 | 1.0 | 0.0 | 0.00 | 0.00 | 0.00 | 91 | 1004.7 |
| 20260506172829 | 55 | 198 | 1.0 | 0.0 | 0.00 | 0.00 | 0.00 | 90 | 1004.8 |
| 20260506172729 | 55 | 166 | 1.0 | 0.0 | 0.00 | 0.00 | 0.00 | 90 | 1004.7 |
| 20260506172629 | 55 | 165 | 1.0 | 0.0 | 0.00 | 0.00 | 0.00 | 90 | 1004.7 |
| 20260506172529 | 55 | 70 | 1.0 | 0.0 | 0.00 | 0.00 | 0.00 | 90 | 1004.8 |
| 20260506172429 | 55 | 65 | 1.0 | 0.0 | 0.00 | 0.00 | 0.00 | 90 | 1004.8 |
| 20260506172329 | 55 | 52 | 1.0 | 0.0 | 0.00 | 0.00 | 0.00 | 90 | 1004.9 |
| 20260506172229 | 55 | 318 | 1.0 | 0.0 | 0.00 | 0.00 | 0.00 | 89 | 1005.0 |
| 20260506172129 | 55 | 346 | 1.0 | 0.0 | 0.00 | 0.00 | 0.00 | 89 | 1004.9 |
| 20260506172029 | 55 | 296 | 3.0 | 0.0 | 0.00 | 0.00 | 0.00 | 89 | 1005.0 |
| 20260506171929 | 55 | 304 | 2.0 | 0.0 | 0.00 | 0.00 | 0.00 | 89 | 1005.0 |
| 20260506171828 | 55 | 208 | 1.0 | 0.0 | 0.00 | 0.00 | 0.00 | 89 | 1004.9 |
| 20260506171728 | 55 | 309 | 1.0 | 0.0 | 0.00 | 0.00 | 0.00 | 89 | 1004.8 |
| 20260506171628 | 55 | 214 | 1.0 | 0.0 | 0.00 | 0.00 | 0.00 | 89 | 1004.7 |
| 20260506171528 | 55 | 194 | 0.0 | 0.0 | 0.00 | 0.00 | 0.00 | 89 | 1004.8 |
| 20260506171428 | 55 | 123 | 1.0 | 0.0 | 0.00 | 0.00 | 0.00 | 89 | 1004.7 |
| 20260506171328 | 55 | 173 | 1.0 | 0.0 | 0.00 | 0.00 | 0.00 | 90 | 1004.8 |
| 20260506171228 | 55 | 168 | 2.0 | 0.0 | 0.00 | 0.00 | 0.00 | 90 | 1004.7 |
| 20260506171128 | 55 | 191 | 2.0 | 0.0 | 0.00 | 0.00 | 0.00 | 90 | 1004.7 |
| 20260506171028 | 55 | 259 | 1.0 | 0.0 | 0.00 | 0.00 | 0.00 | 90 | 1004.7 |
| 20260506170928 | 55 | 173 | 1.0 | 0.0 | 0.00 | 0.00 | 0.00 | 89 | 1004.7 |
| 20260506170828 | 55 | 246 | 0.0 | 0.0 | 0.00 | 0.00 | 0.00 | 89 | 1004.7 |
| 20260506170728 | 56 | 310 | 0.0 | 0.0 | 0.00 | 0.00 | 0.00 | 89 | 1004.6 |
| 20260506170628 | 56 | 201 | 0.0 | 0.0 | 0.00 | 0.00 | 0.00 | 89 | 1004.7 |
| 20260506170528 | 56 | 228 | 2.0 | 0.0 | 0.00 | 0.00 | 0.00 | 90 | 1004.6 |
| 20260506170428 | 56 | 204 | 2.0 | 0.0 | 0.00 | 0.00 | 0.00 | 90 | 1004.7 |
| 20260506170328 | 56 | 229 | 2.0 | 0.0 | 0.00 | 0.00 | 0.00 | 90 | 1004.6 |
| 20260506170228 | 56 | 201 | 2.0 | 0.0 | 0.00 | 0.00 | 0.00 | 89 | 1004.6 |
| 20260506170127 | 56 | 224 | 1.0 | 0.0 | 0.00 | 0.00 | 0.00 | 89 | 1004.6 |
| 20260506170027 | 56 | 195 | 0.0 | 0.0 | 0.00 | 0.00 | 0.00 | 88 | 1004.6 |
| 20260506165927 | 56 | 25 | 0.0 | 0.0 | 0.00 | 0.00 | 0.00 | 88 | 1004.6 |
| 20260506165827 | 56 | 154 | 0.0 | 0.0 | 0.00 | 0.00 | 0.00 | 88 | 1004.6 |
| 20260506165727 | 56 | 157 | 0.0 | 0.0 | 0.00 | 0.00 | 0.00 | 88 | 1004.6 |
| 20260506165627 | 56 | 174 | 1.0 | 0.0 | 0.00 | 0.00 | 0.00 | 88 | 1004.6 |
| 20260506165527 | 56 | 224 | 0.0 | 0.0 | 0.00 | 0.00 | 0.00 | 88 | 1004.6 |
| 20260506165427 | 56 | 50 | 1.0 | 0.0 | 0.00 | 0.00 | 0.00 | 87 | 1004.6 |
| 20260506165327 | 56 | 322 | 1.0 | 0.0 | 0.00 | 0.00 | 0.00 | 86 | 1004.7 |
| 20260506165227 | 56 | 208 | 0.0 | 0.0 | 0.00 | 0.00 | 0.00 | 86 | 1004.7 |
| 20260506165127 | 56 | 195 | 1.0 | 0.0 | 0.00 | 0.00 | 0.00 | 86 | 1004.7 |
| 20260506165027 | 56 | 135 | 1.0 | 0.0 | 0.00 | 0.00 | 0.00 | 85 | 1004.7 |
| 20260506164927 | 56 | 208 | 1.0 | 0.0 | 0.00 | 0.00 | 0.00 | 84 | 1004.8 |
| 20260506164827 | 56 | 212 | 1.0 | 0.0 | 0.00 | 0.00 | 0.00 | 83 | 1004.8 |
| 20260506164727 | 57 | 94 | 1.0 | 0.0 | 0.00 | 0.00 | 0.00 | 82 | 1004.7 |
| 20260506164627 | 57 | 129 | 1.0 | 0.0 | 0.00 | 0.00 | 0.00 | 82 | 1004.9 |
| 20260506164526 | 57 | 103 | 2.0 | 0.0 | 0.00 | 0.00 | 0.00 | 81 | 1004.8 |
| 20260506164426 | 57 | 109 | 1.0 | 0.0 | 0.00 | 0.00 | 0.00 | 81 | 1004.8 |
| 20260506164326 | 57 | 99 | 2.0 | 0.0 | 0.00 | 0.00 | 0.00 | 81 | 1004.8 |
| 20260506164226 | 57 | 74 | 1.0 | 0.0 | 0.00 | 0.00 | 0.00 | 80 | 1004.9 |
| 20260506164126 | 57 | 53 | 1.0 | 0.0 | 0.00 | 0.00 | 0.00 | 79 | 1004.9 |
| 20260506164026 | 57 | 72 | 1.0 | 0.0 | 0.00 | 0.00 | 0.00 | 78 | 1004.9 |
| 20260506163926 | 57 | 48 | 1.0 | 0.0 | 0.00 | 0.00 | 0.00 | 78 | 1004.8 |
| 20260506163826 | 58 | 34 | 1.0 | 0.0 | 0.00 | 0.00 | 0.00 | 77 | 1004.9 |
| 20260506163726 | 58 | 101 | 2.0 | 0.0 | 0.00 | 0.00 | 0.00 | 76 | 1004.8 |
| 20260506163626 | 58 | 123 | 3.0 | 0.0 | 0.00 | 0.00 | 0.00 | 77 | 1004.8 |
| 20260506163526 | 58 | 119 | 1.0 | 0.0 | 0.00 | 0.00 | 0.00 | 78 | 1004.9 |
| 20260506163426 | 58 | 315 | 1.0 | 0.0 | 0.00 | 0.00 | 0.00 | 79 | 1004.9 |
| 20260506163326 | 58 | 189 | 0.0 | 0.0 | 0.00 | 0.00 | 0.00 | 79 | 1004.8 |
| 20260506163226 | 58 | 278 | 1.0 | 0.0 | 0.00 | 0.00 | 0.00 | 79 | 1004.8 |
| 20260506163126 | 58 | 129 | 1.0 | 0.0 | 0.00 | 0.00 | 0.00 | 79 | 1004.8 |
| 20260506163026 | 58 | 135 | 0.0 | 0.0 | 0.00 | 0.00 | 0.00 | 79 | 1004.8 |
| 20260506162926 | 58 | 197 | 0.0 | 0.0 | 0.00 | 0.00 | 0.00 | 78 | 1004.8 |
| 20260506162825 | 58 | 238 | 2.0 | 0.0 | 0.00 | 0.00 | 0.00 | 78 | 1004.8 |
| 20260506162725 | 58 | 62 | 1.0 | 0.0 | 0.00 | 0.00 | 0.00 | 80 | 1004.8 |
| 20260506162625 | 58 | 292 | 1.0 | 0.0 | 0.00 | 0.00 | 0.00 | 82 | 1004.8 |
| 20260506162525 | 58 | 297 | 1.0 | 0.0 | 0.00 | 0.00 | 0.00 | 83 | 1005.0 |
| 20260506162425 | 58 | 306 | 0.0 | 0.0 | 0.00 | 0.00 | 0.00 | 82 | 1004.9 |
| 20260506162325 | 58 | 71 | 1.0 | 0.0 | 0.00 | 0.00 | 0.00 | 82 | 1004.8 |
| 20260506162225 | 58 | 168 | 2.0 | 0.0 | 0.00 | 0.00 | 0.00 | 82 | 1004.8 |
| 20260506162125 | 58 | 88 | 1.0 | 0.0 | 0.00 | 0.00 | 0.00 | 81 | 1004.7 |
| 20260506162025 | 58 | 57 | 1.0 | 0.0 | 0.00 | 0.00 | 0.00 | 80 | 1004.8 |
| 20260506161925 | 58 | 11 | 0.0 | 0.0 | 0.00 | 0.00 | 0.00 | 81 | 1004.8 |
| 20260506161825 | 58 | 38 | 1.0 | 0.0 | 0.00 | 0.00 | 0.00 | 81 | 1004.8 |
| 20260506161725 | 58 | 37 | 1.0 | 0.0 | 0.00 | 0.00 | 0.00 | 79 | 1004.8 |
| 20260506161625 | 58 | 50 | 1.0 | 0.0 | 0.00 | 0.00 | 0.00 | 80 | 1004.8 |
| 20260506161525 | 58 | 62 | 0.0 | 0.0 | 0.00 | 0.00 | 0.00 | 80 | 1004.8 |
| 20260506161425 | 58 | 114 | 1.0 | 0.0 | 0.00 | 0.00 | 0.00 | 77 | 1004.8 |
| 20260506161325 | 58 | 193 | 0.0 | 0.0 | 0.00 | 0.00 | 0.00 | 76 | 1004.8 |
| 20260506161225 | 58 | 247 | 3.0 | 0.0 | 0.00 | 0.00 | 0.00 | 75 | 1004.7 |
| 20260506161124 | 58 | 342 | 2.0 | 0.0 | 0.00 | 0.00 | 0.00 | 74 | 1004.8 |
| 20260506161024 | 58 | 260 | 2.0 | 0.0 | 0.00 | 0.00 | 0.00 | 74 | 1004.7 |
| 20260506160924 | 58 | 256 | 5.0 | 0.0 | 0.00 | 0.00 | 0.00 | 74 | 1004.9 |
| 20260506160824 | 58 | 4 | 2.0 | 0.0 | 0.00 | 0.00 | 0.00 | 74 | 1004.8 |
| 20260506160724 | 58 | 263 | 3.0 | 0.0 | 0.00 | 0.00 | 0.00 | 74 | 1004.9 |
| 20260506160624 | 58 | 263 | 5.0 | 0.0 | 0.00 | 0.00 | 0.00 | 76 | 1004.8 |
| 20260506160524 | 58 | 230 | 1.0 | 0.0 | 0.00 | 0.00 | 0.00 | 76 | 1004.9 |
| 20260506160424 | 59 | 274 | 2.0 | 0.0 | 0.00 | 0.00 | 0.00 | 75 | 1004.9 |
| 20260506160324 | 59 | 286 | 1.0 | 0.0 | 0.00 | 0.00 | 0.00 | 74 | 1005.0 |
| 20260506160224 | 59 | 288 | 2.0 | 0.0 | 0.00 | 0.00 | 0.00 | 72 | 1004.9 |
| 20260506160124 | 59 | 258 | 7.0 | 0.0 | 0.00 | 0.00 | 0.00 | 73 | 1004.9 |
| 20260506160024 | 60 | 236 | 5.0 | 0.0 | 0.00 | 0.00 | 0.00 | 74 | 1004.9 |
| 20260506155924 | 60 | 232 | 3.0 | 0.0 | 0.00 | 0.00 | 0.00 | 72 | 1004.9 |
| 20260506155824 | 61 | 267 | 5.0 | 0.0 | 0.00 | 0.00 | 0.00 | 72 | 1004.8 |
| 20260506155724 | 61 | 260 | 9.0 | 0.0 | 0.00 | 0.00 | 0.00 | 71 | 1004.9 |
| 20260506155624 | 62 | 246 | 4.0 | 0.0 | 0.00 | 0.00 | 0.00 | 71 | 1004.8 |
| 20260506155523 | 62 | 259 | 6.0 | 0.0 | 0.00 | 0.00 | 0.00 | 71 | 1004.7 |
| 20260506155423 | 62 | 276 | 5.0 | 0.0 | 0.00 | 0.00 | 0.00 | 70 | 1004.8 |
| 20260506155323 | 62 | 283 | 5.0 | 0.0 | 0.00 | 0.00 | 0.00 | 69 | 1004.7 |
| 20260506155223 | 62 | 245 | 2.0 | 0.0 | 0.00 | 0.00 | 0.00 | 69 | 1004.7 |
| 20260506155123 | 62 | 262 | 2.0 | 0.0 | 0.00 | 0.00 | 0.00 | 68 | 1004.9 |
| 20260506155023 | 62 | 260 | 3.0 | 0.0 | 0.00 | 0.00 | 0.00 | 68 | 1004.7 |
| 20260506154923 | 62 | 59 | 2.0 | 0.0 | 0.00 | 0.00 | 0.00 | 67 | 1004.6 |
| 20260506154823 | 62 | 308 | 1.0 | 0.0 | 0.00 | 0.00 | 0.00 | 67 | 1004.7 |
| 20260506154723 | 62 | 292 | 2.0 | 0.0 | 0.00 | 0.00 | 0.00 | 68 | 1004.7 |
| 20260506154623 | 62 | 292 | 2.0 | 0.0 | 0.00 | 0.00 | 0.00 | 68 | 1004.7 |
| 20260506154523 | 62 | 289 | 2.0 | 0.0 | 0.00 | 0.00 | 0.00 | 68 | 1004.8 |
| 20260506154423 | 62 | 123 | 2.0 | 0.0 | 0.00 | 0.00 | 0.00 | 68 | 1004.6 |
| 20260506154323 | 62 | 99 | 2.0 | 0.0 | 0.00 | 0.00 | 0.00 | 68 | 1004.8 |
| 20260506154223 | 62 | 101 | 2.0 | 0.0 | 0.00 | 0.00 | 0.00 | 68 | 1004.6 |
| 20260506154123 | 62 | 115 | 2.0 | 0.0 | 0.00 | 0.00 | 0.00 | 68 | 1004.6 |
| 20260506154023 | 62 | 85 | 4.0 | 0.0 | 0.00 | 0.00 | 0.00 | 67 | 1004.6 |
| 20260506153922 | 62 | 100 | 4.0 | 0.0 | 0.00 | 0.00 | 0.00 | 67 | 1004.6 |
| 20260506153822 | 62 | 117 | 2.0 | 0.0 | 0.00 | 0.00 | 0.00 | 67 | 1004.7 |
| 20260506153722 | 62 | 39 | 5.0 | 0.0 | 0.00 | 0.00 | 0.00 | 67 | 1004.6 |
| 20260506153622 | 62 | 284 | 6.0 | 0.0 | 0.00 | 0.00 | 0.00 | 67 | 1004.6 |
| 20260506153523 | 62 | 289 | 3.0 | 0.0 | 0.00 | 0.00 | 0.00 | 66 | 1004.6 |
| 20260506153422 | 62 | 204 | 2.0 | 0.0 | 0.00 | 0.00 | 0.00 | 66 | 1004.7 |
| 20260506153322 | 63 | 248 | 3.0 | 0.0 | 0.00 | 0.00 | 0.00 | 65 | 1004.7 |
| 20260506153222 | 63 | 135 | 2.0 | 0.0 | 0.00 | 0.00 | 0.00 | 65 | 1004.6 |
| 20260506153122 | 63 | 74 | 3.0 | 0.0 | 0.00 | 0.00 | 0.00 | 65 | 1004.6 |
| 20260506153022 | 63 | 116 | 2.0 | 0.0 | 0.00 | 0.00 | 0.00 | 64 | 1004.6 |
| 20260506152922 | 63 | 119 | 6.0 | 0.0 | 0.00 | 0.00 | 0.00 | 64 | 1004.6 |
| 20260506152822 | 63 | 115 | 4.0 | 0.0 | 0.00 | 0.00 | 0.00 | 64 | 1004.6 |
| 20260506152722 | 63 | 264 | 3.0 | 0.0 | 0.00 | 0.00 | 0.00 | 64 | 1004.5 |
| 20260506152622 | 63 | 307 | 2.0 | 0.0 | 0.00 | 0.00 | 0.00 | 64 | 1004.6 |
| 20260506152522 | 63 | 305 | 2.0 | 0.0 | 0.00 | 0.00 | 0.00 | 64 | 1004.6 |
| 20260506152422 | 63 | 343 | 1.0 | 0.0 | 0.00 | 0.00 | 0.00 | 64 | 1004.7 |
| 20260506152322 | 63 | 74 | 1.0 | 0.0 | 0.00 | 0.00 | 0.00 | 63 | 1004.6 |
| 20260506152221 | 63 | 287 | 3.0 | 0.0 | 0.00 | 0.00 | 0.00 | 63 | 1004.7 |
| 20260506152121 | 63 | 275 | 3.0 | 0.0 | 0.00 | 0.00 | 0.00 | 63 | 1004.7 |
| 20260506152021 | 63 | 282 | 2.0 | 0.0 | 0.00 | 0.00 | 0.00 | 64 | 1004.7 |
| 20260506151921 | 63 | 313 | 2.0 | 0.0 | 0.00 | 0.00 | 0.00 | 63 | 1004.6 |
| 20260506151821 | 63 | 101 | 4.0 | 0.0 | 0.00 | 0.00 | 0.00 | 63 | 1004.6 |
| 20260506151721 | 63 | 273 | 2.0 | 0.0 | 0.00 | 0.00 | 0.00 | 63 | 1004.7 |
| 20260506151621 | 63 | 332 | 3.0 | 0.0 | 0.00 | 0.00 | 0.00 | 63 | 1004.7 |
| 20260506151521 | 63 | 173 | 2.0 | 0.0 | 0.00 | 0.00 | 0.00 | 63 | 1004.7 |
| 20260506151421 | 63 | 92 | 8.0 | 0.0 | 0.00 | 0.00 | 0.00 | 64 | 1004.5 |
| 20260506151321 | 63 | 329 | 4.0 | 0.0 | 0.00 | 0.00 | 0.00 | 64 | 1004.6 |
| 20260506151221 | 63 | 103 | 2.0 | 0.0 | 0.00 | 0.00 | 0.00 | 63 | 1004.5 |
| 20260506151121 | 63 | 151 | 4.0 | 0.0 | 0.00 | 0.00 | 0.00 | 63 | 1004.4 |
| 20260506151021 | 63 | 125 | 6.0 | 0.0 | 0.00 | 0.00 | 0.00 | 63 | 1004.4 |
| 20260506150921 | 63 | 42 | 2.0 | 0.0 | 0.00 | 0.00 | 0.00 | 63 | 1004.5 |
| 20260506150821 | 63 | 155 | 5.0 | 0.0 | 0.00 | 0.00 | 0.00 | 63 | 1004.4 |
| 20260506150721 | 63 | 174 | 4.0 | 0.0 | 0.00 | 0.00 | 0.00 | 63 | 1004.3 |
| 20260506150620 | 63 | 137 | 2.0 | 0.0 | 0.00 | 0.00 | 0.00 | 63 | 1004.4 |
| 20260506150520 | 63 | 117 | 4.0 | 0.0 | 0.00 | 0.00 | 0.00 | 63 | 1004.3 |
| 20260506150420 | 63 | 123 | 3.0 | 0.0 | 0.00 | 0.00 | 0.00 | 62 | 1004.4 |
| 20260506150320 | 63 | 110 | 6.0 | 0.0 | 0.00 | 0.00 | 0.00 | 62 | 1004.4 |
| 20260506150220 | 63 | 115 | 9.0 | 0.0 | 0.00 | 0.00 | 0.00 | 62 | 1004.4 |
| 20260506150120 | 63 | 136 | 6.0 | 0.0 | 0.00 | 0.00 | 0.00 | 62 | 1004.5 |
| 20260506150020 | 63 | 142 | 4.0 | 0.0 | 0.00 | 0.00 | 0.00 | 63 | 1004.4 |
| 20260506145920 | 63 | 160 | 4.0 | 0.0 | 0.00 | 0.00 | 0.00 | 63 | 1004.5 |
| 20260506145820 | 63 | 177 | 5.0 | 0.0 | 0.00 | 0.00 | 0.00 | 62 | 1004.5 |
| 20260506145720 | 63 | 248 | 4.0 | 0.0 | 0.00 | 0.00 | 0.00 | 62 | 1004.4 |
| 20260506145620 | 64 | 141 | 3.0 | 0.0 | 0.00 | 0.00 | 0.00 | 61 | 1004.5 |
| 20260506145520 | 64 | 109 | 8.0 | 0.0 | 0.00 | 0.00 | 0.00 | 62 | 1004.5 |
| 20260506145420 | 64 | 113 | 8.0 | 0.0 | 0.00 | 0.00 | 0.00 | 64 | 1004.5 |
| 20260506145320 | 64 | 286 | 1.0 | 0.0 | 0.00 | 0.00 | 0.00 | 64 | 1004.4 |
| 20260506145220 | 64 | 330 | 1.0 | 0.0 | 0.00 | 0.00 | 0.00 | 63 | 1004.5 |
| 20260506145120 | 63 | 346 | 1.0 | 0.0 | 0.00 | 0.00 | 0.00 | 64 | 1004.4 |
| 20260506145019 | 63 | 37 | 2.0 | 0.0 | 0.00 | 0.00 | 0.00 | 65 | 1004.4 |
| 20260506144919 | 63 | 288 | 2.0 | 0.0 | 0.00 | 0.00 | 0.00 | 64 | 1004.5 |
| 20260506144819 | 63 | 344 | 2.0 | 0.0 | 0.00 | 0.00 | 0.00 | 65 | 1004.5 |
| 20260506144719 | 63 | 265 | 4.0 | 0.0 | 0.00 | 0.00 | 0.00 | 65 | 1004.4 |
| 20260506144619 | 63 | 241 | 2.0 | 0.0 | 0.00 | 0.00 | 0.00 | 64 | 1004.4 |
| 20260506144519 | 63 | 156 | 5.0 | 0.0 | 0.00 | 0.00 | 0.00 | 65 | 1004.4 |
| 20260506144419 | 63 | 87 | 2.0 | 0.0 | 0.00 | 0.00 | 0.00 | 64 | 1004.5 |
| 20260506144319 | 63 | 184 | 1.0 | 0.0 | 0.00 | 0.00 | 0.00 | 64 | 1004.5 |
| 20260506144219 | 63 | 155 | 4.0 | 0.0 | 0.00 | 0.00 | 0.00 | 66 | 1004.5 |
| 20260506144119 | 63 | 139 | 3.0 | 0.0 | 0.00 | 0.00 | 0.00 | 65 | 1004.6 |
| 20260506144019 | 63 | 135 | 3.0 | 0.0 | 0.00 | 0.00 | 0.00 | 66 | 1004.5 |
| 20260506143919 | 63 | 142 | 2.0 | 0.0 | 0.00 | 0.00 | 0.00 | 67 | 1004.6 |
| 20260506143819 | 63 | 83 | 2.0 | 0.0 | 0.00 | 0.00 | 0.00 | 68 | 1004.5 |
| 20260506143719 | 63 | 46 | 2.0 | 0.0 | 0.00 | 0.00 | 0.00 | 66 | 1004.6 |
| 20260506143619 | 63 | 121 | 2.0 | 0.0 | 0.00 | 0.00 | 0.00 | 64 | 1004.6 |
| 20260506143519 | 63 | 64 | 1.0 | 0.0 | 0.00 | 0.00 | 0.00 | 63 | 1004.6 |
| 20260506143418 | 63 | 145 | 5.0 | 0.0 | 0.00 | 0.00 | 0.00 | 63 | 1004.6 |
| 20260506143318 | 63 | 105 | 4.0 | 0.0 | 0.00 | 0.00 | 0.00 | 63 | 1004.6 |
| 20260506143218 | 63 | 146 | 5.0 | 0.0 | 0.00 | 0.00 | 0.00 | 63 | 1004.7 |
| 20260506143118 | 63 | 57 | 5.0 | 0.0 | 0.00 | 0.00 | 0.00 | 64 | 1004.6 |
| 20260506143018 | 63 | 86 | 1.0 | 0.0 | 0.00 | 0.00 | 0.00 | 65 | 1004.6 |
| 20260506142918 | 63 | 286 | 2.0 | 0.0 | 0.00 | 0.00 | 0.00 | 66 | 1004.5 |
| 20260506142818 | 63 | 277 | 1.0 | 0.0 | 0.00 | 0.00 | 0.00 | 66 | 1004.6 |
| 20260506142718 | 63 | 164 | 2.0 | 0.0 | 0.00 | 0.00 | 0.00 | 66 | 1004.6 |
| 20260506142618 | 63 | 319 | 2.0 | 0.0 | 0.00 | 0.00 | 0.00 | 65 | 1004.6 |
| 20260506142518 | 63 | 190 | 2.0 | 0.0 | 0.00 | 0.00 | 0.00 | 65 | 1004.7 |
| 20260506142418 | 63 | 180 | 4.0 | 0.0 | 0.00 | 0.00 | 0.00 | 67 | 1004.5 |
| 20260506142318 | 63 | 169 | 1.0 | 0.0 | 0.00 | 0.00 | 0.00 | 66 | 1004.6 |
| 20260506142218 | 63 | 49 | 1.0 | 0.0 | 0.00 | 0.00 | 0.00 | 64 | 1004.6 |
| 20260506142118 | 63 | 125 | 3.0 | 0.0 | 0.00 | 0.00 | 0.00 | 64 | 1004.6 |
| 20260506142018 | 63 | 126 | 2.0 | 0.0 | 0.00 | 0.00 | 0.00 | 64 | 1004.5 |
| 20260506141918 | 63 | 57 | 4.0 | 0.0 | 0.00 | 0.00 | 0.00 | 64 | 1004.5 |
| 20260506141818 | 63 | 100 | 1.0 | 0.0 | 0.00 | 0.00 | 0.00 | 64 | 1004.6 |
| 20260506141717 | 63 | 161 | 4.0 | 0.0 | 0.00 | 0.00 | 0.00 | 65 | 1004.6 |
| 20260506141617 | 63 | 157 | 1.0 | 0.0 | 0.00 | 0.00 | 0.00 | 63 | 1004.5 |
| 20260506141517 | 63 | 253 | 7.0 | 0.0 | 0.00 | 0.00 | 0.00 | 62 | 1004.6 |
| 20260506141417 | 63 | 76 | 5.0 | 0.0 | 0.00 | 0.00 | 0.00 | 62 | 1004.5 |
| 20260506141317 | 63 | 139 | 7.0 | 0.0 | 0.00 | 0.00 | 0.00 | 61 | 1004.6 |
| 20260506141217 | 63 | 95 | 4.0 | 0.0 | 0.00 | 0.00 | 0.00 | 61 | 1004.5 |
| 20260506141117 | 63 | 136 | 9.0 | 0.0 | 0.00 | 0.00 | 0.00 | 60 | 1004.5 |
| 20260506141017 | 64 | 155 | 5.0 | 0.0 | 0.00 | 0.00 | 0.00 | 60 | 1004.4 |
| 20260506140917 | 64 | 128 | 10.0 | 0.0 | 0.00 | 0.00 | 0.00 | 60 | 1004.5 |
| 20260506140817 | 64 | 25 | 4.0 | 0.0 | 0.00 | 0.00 | 0.00 | 60 | 1004.4 |
| 20260506140717 | 64 | 115 | 8.0 | 0.0 | 0.00 | 0.00 | 0.00 | 60 | 1004.4 |
| 20260506140617 | 65 | 143 | 6.0 | 0.0 | 0.00 | 0.00 | 0.00 | 59 | 1004.4 |
| 20260506140517 | 65 | 110 | 7.0 | 0.0 | 0.00 | 0.00 | 0.00 | 59 | 1004.4 |
| 20260506140417 | 65 | 122 | 4.0 | 0.0 | 0.00 | 0.00 | 0.00 | 58 | 1004.4 |
| 20260506140317 | 65 | 178 | 3.0 | 0.0 | 0.00 | 0.00 | 0.00 | 57 | 1004.4 |
| 20260506140217 | 66 | 141 | 7.0 | 0.0 | 0.00 | 0.00 | 0.00 | 56 | 1004.4 |
| 20260506140116 | 66 | 115 | 4.0 | 0.0 | 0.00 | 0.00 | 0.00 | 55 | 1004.4 |
| 20260506140016 | 66 | 172 | 2.0 | 0.0 | 0.00 | 0.00 | 0.00 | 54 | 1004.4 |
| 20260506135916 | 66 | 343 | 3.0 | 0.0 | 0.00 | 0.00 | 0.00 | 52 | 1004.4 |
| 20260506135816 | 66 | 271 | 5.0 | 0.0 | 0.00 | 0.00 | 0.00 | 51 | 1004.4 |
| 20260506135716 | 66 | 267 | 3.0 | 0.0 | 0.00 | 0.00 | 0.00 | 51 | 1004.5 |
| 20260506135616 | 66 | 276 | 2.0 | 0.0 | 0.00 | 0.00 | 0.00 | 50 | 1004.4 |
| 20260506135516 | 66 | 354 | 3.0 | 0.0 | 0.00 | 0.00 | 0.00 | 51 | 1004.6 |
| 20260506135416 | 66 | 280 | 5.0 | 0.0 | 0.00 | 0.00 | 0.00 | 51 | 1004.5 |
| 20260506135316 | 66 | 129 | 6.0 | 0.0 | 0.00 | 0.00 | 0.00 | 52 | 1004.4 |
| 20260506135216 | 66 | 283 | 1.0 | 0.0 | 0.00 | 0.00 | 0.00 | 52 | 1004.4 |
| 20260506135116 | 66 | 49 | 3.0 | 0.0 | 0.00 | 0.00 | 0.00 | 51 | 1004.4 |
| 20260506135016 | 66 | 26 | 2.0 | 0.0 | 0.00 | 0.00 | 0.00 | 51 | 1004.4 |
| 20260506134916 | 66 | 10 | 1.0 | 0.0 | 0.00 | 0.00 | 0.00 | 51 | 1004.4 |
| 20260506134816 | 66 | 96 | 2.0 | 0.0 | 0.00 | 0.00 | 0.00 | 51 | 1004.5 |
| 20260506134716 | 66 | 44 | 2.0 | 0.0 | 0.00 | 0.00 | 0.00 | 50 | 1004.4 |
| 20260506134616 | 66 | 226 | 4.0 | 0.0 | 0.00 | 0.00 | 0.00 | 51 | 1004.4 |
| 20260506134516 | 67 | 231 | 5.0 | 0.0 | 0.00 | 0.00 | 0.00 | 50 | 1004.4 |
| 20260506134415 | 67 | 258 | 4.0 | 0.0 | 0.00 | 0.00 | 0.00 | 50 | 1004.4 |
| 20260506134315 | 67 | 267 | 6.0 | 0.0 | 0.00 | 0.00 | 0.00 | 50 | 1004.4 |
| 20260506134215 | 67 | 232 | 4.0 | 0.0 | 0.00 | 0.00 | 0.00 | 50 | 1004.5 |
| 20260506134115 | 67 | 189 | 3.0 | 0.0 | 0.00 | 0.00 | 0.00 | 50 | 1004.4 |
| 20260506134015 | 67 | 277 | 4.0 | 0.0 | 0.00 | 0.00 | 0.00 | 50 | 1004.5 |
| 20260506133917 | 67 | 246 | 2.0 | 0.0 | 0.00 | 0.00 | 0.00 | 51 | 1004.4 |
| 20260506133815 | 66 | 254 | 4.0 | 0.0 | 0.00 | 0.00 | 0.00 | 52 | 1004.4 |
| 20260506133715 | 66 | 9 | 1.0 | 0.0 | 0.00 | 0.00 | 0.00 | 51 | 1004.4 |
| 20260506133615 | 66 | 283 | 5.0 | 0.0 | 0.00 | 0.00 | 0.00 | 50 | 1004.3 |
| 20260506133515 | 66 | 263 | 4.0 | 0.0 | 0.00 | 0.00 | 0.00 | 51 | 1004.5 |
| 20260506133415 | 66 | 245 | 2.0 | 0.0 | 0.00 | 0.00 | 0.00 | 50 | 1004.4 |
| 20260506133315 | 66 | 282 | 4.0 | 0.0 | 0.00 | 0.00 | 0.00 | 50 | 1004.5 |
| 20260506133215 | 67 | 44 | 0.0 | 0.0 | 0.00 | 0.00 | 0.00 | 48 | 1004.5 |
| 20260506133115 | 67 | 279 | 2.0 | 0.0 | 0.00 | 0.00 | 0.00 | 49 | 1004.5 |
| 20260506133015 | 67 | 272 | 7.0 | 0.0 | 0.00 | 0.00 | 0.00 | 50 | 1004.5 |
| 20260506132914 | 67 | 4 | 2.0 | 0.0 | 0.00 | 0.00 | 0.00 | 50 | 1004.5 |
| 20260506132814 | 67 | 335 | 3.0 | 0.0 | 0.00 | 0.00 | 0.00 | 51 | 1004.5 |
| 20260506132714 | 67 | 82 | 3.0 | 0.0 | 0.00 | 0.00 | 0.00 | 52 | 1004.5 |
| 20260506132614 | 66 | 226 | 2.0 | 0.0 | 0.00 | 0.00 | 0.00 | 52 | 1004.5 |
| 20260506132514 | 66 | 283 | 2.0 | 0.0 | 0.00 | 0.00 | 0.00 | 51 | 1004.6 |
| 20260506132414 | 66 | 257 | 4.0 | 0.0 | 0.00 | 0.00 | 0.00 | 51 | 1004.6 |
| 20260506132314 | 66 | 252 | 5.0 | 0.0 | 0.00 | 0.00 | 0.00 | 51 | 1004.5 |
| 20260506132214 | 66 | 206 | 3.0 | 0.0 | 0.00 | 0.00 | 0.00 | 50 | 1004.5 |
| 20260506132114 | 66 | 279 | 4.0 | 0.0 | 0.00 | 0.00 | 0.00 | 50 | 1004.6 |
| 20260506132014 | 66 | 268 | 9.0 | 0.0 | 0.00 | 0.00 | 0.00 | 51 | 1004.5 |
| 20260506131914 | 66 | 241 | 4.0 | 0.0 | 0.00 | 0.00 | 0.00 | 52 | 1004.6 |
| 20260506131814 | 65 | 295 | 2.0 | 0.0 | 0.00 | 0.00 | 0.00 | 53 | 1004.5 |
| 20260506131714 | 65 | 147 | 4.0 | 0.0 | 0.00 | 0.00 | 0.00 | 52 | 1004.5 |
| 20260506131614 | 65 | 266 | 10.0 | 0.0 | 0.00 | 0.00 | 0.00 | 52 | 1004.5 |
| 20260506131514 | 66 | 256 | 5.0 | 0.0 | 0.00 | 0.00 | 0.00 | 51 | 1004.6 |
| 20260506131414 | 66 | 258 | 7.0 | 0.0 | 0.00 | 0.00 | 0.00 | 52 | 1004.5 |
| 20260506131314 | 66 | 232 | 2.0 | 0.0 | 0.00 | 0.00 | 0.00 | 52 | 1004.6 |
| 20260506131213 | 66 | 322 | 1.0 | 0.0 | 0.00 | 0.00 | 0.00 | 52 | 1004.6 |
| 20260506131113 | 66 | 259 | 4.0 | 0.0 | 0.00 | 0.00 | 0.00 | 51 | 1004.7 |
| 20260506131013 | 66 | 75 | 2.0 | 0.0 | 0.00 | 0.00 | 0.00 | 51 | 1004.7 |
| 20260506130913 | 66 | 298 | 2.0 | 0.0 | 0.00 | 0.00 | 0.00 | 50 | 1004.7 |
| 20260506130813 | 66 | 274 | 2.0 | 0.0 | 0.00 | 0.00 | 0.00 | 50 | 1004.6 |
| 20260506130713 | 66 | 264 | 2.0 | 0.0 | 0.00 | 0.00 | 0.00 | 52 | 1004.6 |
| 20260506130613 | 66 | 251 | 1.0 | 0.0 | 0.00 | 0.00 | 0.00 | 52 | 1004.6 |
| 20260506130513 | 66 | 287 | 2.0 | 0.0 | 0.00 | 0.00 | 0.00 | 52 | 1004.6 |
| 20260506130413 | 66 | 14 | 1.0 | 0.0 | 0.00 | 0.00 | 0.00 | 53 | 1004.6 |
| 20260506130313 | 66 | 100 | 2.0 | 0.0 | 0.00 | 0.00 | 0.00 | 52 | 1004.6 |
| 20260506130213 | 66 | 290 | 4.0 | 0.0 | 0.00 | 0.00 | 0.00 | 52 | 1004.6 |
| 20260506130113 | 66 | 272 | 5.0 | 0.0 | 0.00 | 0.00 | 0.00 | 53 | 1004.6 |
| 20260506130013 | 66 | 256 | 3.0 | 0.0 | 0.00 | 0.00 | 0.00 | 53 | 1004.7 |
| 20260506125913 | 65 | 61 | 1.0 | 0.0 | 0.00 | 0.00 | 0.00 | 53 | 1004.6 |
| 20260506125813 | 65 | 283 | 4.0 | 0.0 | 0.00 | 0.00 | 0.00 | 54 | 1004.6 |
| 20260506125713 | 65 | 237 | 2.0 | 0.0 | 0.00 | 0.00 | 0.00 | 53 | 1004.7 |
| 20260506125612 | 65 | 265 | 7.0 | 0.0 | 0.00 | 0.00 | 0.00 | 52 | 1004.5 |
| 20260506125512 | 66 | 264 | 2.0 | 0.0 | 0.00 | 0.00 | 0.00 | 51 | 1004.6 |
| 20260506125412 | 65 | 286 | 4.0 | 0.0 | 0.00 | 0.00 | 0.00 | 53 | 1004.6 |
| 20260506125312 | 65 | 296 | 1.0 | 0.0 | 0.00 | 0.00 | 0.00 | 53 | 1004.5 |
| 20260506125212 | 65 | 284 | 3.0 | 0.0 | 0.00 | 0.00 | 0.00 | 52 | 1004.6 |
| 20260506125112 | 65 | 71 | 3.0 | 0.0 | 0.00 | 0.00 | 0.00 | 51 | 1004.6 |
| 20260506125012 | 65 | 290 | 4.0 | 0.0 | 0.00 | 0.00 | 0.00 | 54 | 1004.6 |
| 20260506124912 | 65 | 277 | 3.0 | 0.0 | 0.00 | 0.00 | 0.00 | 55 | 1004.6 |
| 20260506124812 | 65 | 15 | 2.0 | 0.0 | 0.00 | 0.00 | 0.00 | 55 | 1004.7 |
| 20260506124712 | 65 | 312 | 4.0 | 0.0 | 0.00 | 0.00 | 0.00 | 55 | 1004.7 |
| 20260506124612 | 65 | 280 | 3.0 | 0.0 | 0.00 | 0.00 | 0.00 | 55 | 1004.7 |
| 20260506124512 | 65 | 250 | 6.0 | 0.0 | 0.00 | 0.00 | 0.00 | 56 | 1004.7 |
| 20260506124412 | 65 | 272 | 5.0 | 0.0 | 0.00 | 0.00 | 0.00 | 55 | 1004.5 |
| 20260506124312 | 65 | 141 | 13.0 | 0.0 | 0.00 | 0.00 | 0.00 | 55 | 1004.7 |
| 20260506124212 | 65 | 98 | 4.0 | 0.0 | 0.00 | 0.00 | 0.00 | 54 | 1004.7 |
| 20260506124112 | 65 | 131 | 8.0 | 0.0 | 0.00 | 0.00 | 0.00 | 54 | 1004.7 |
| 20260506124012 | 66 | 121 | 4.0 | 0.0 | 0.00 | 0.00 | 0.00 | 54 | 1004.6 |
| 20260506123911 | 66 | 117 | 6.0 | 0.0 | 0.00 | 0.00 | 0.00 | 54 | 1004.8 |
| 20260506123811 | 66 | 89 | 6.0 | 0.0 | 0.00 | 0.00 | 0.00 | 54 | 1004.8 |
| 20260506123711 | 66 | 111 | 4.0 | 0.0 | 0.00 | 0.00 | 0.00 | 54 | 1004.7 |
| 20260506123611 | 66 | 102 | 2.0 | 0.0 | 0.00 | 0.00 | 0.00 | 55 | 1004.7 |
| 20260506123511 | 66 | 57 | 4.0 | 0.0 | 0.00 | 0.00 | 0.00 | 55 | 1004.7 |
| 20260506123411 | 66 | 28 | 2.0 | 0.0 | 0.00 | 0.00 | 0.00 | 56 | 1004.7 |
| 20260506123311 | 66 | 254 | 3.0 | 0.0 | 0.00 | 0.00 | 0.00 | 55 | 1004.8 |
| 20260506123211 | 66 | 44 | 3.0 | 0.0 | 0.00 | 0.00 | 0.00 | 55 | 1004.8 |
| 20260506123111 | 66 | 121 | 3.0 | 0.0 | 0.00 | 0.00 | 0.00 | 55 | 1004.7 |
| 20260506123011 | 66 | 275 | 4.0 | 0.0 | 0.00 | 0.00 | 0.00 | 56 | 1004.7 |
| 20260506122911 | 66 | 99 | 2.0 | 0.0 | 0.00 | 0.00 | 0.00 | 56 | 1004.8 |
| 20260506122811 | 66 | 290 | 4.0 | 0.0 | 0.00 | 0.00 | 0.00 | 56 | 1004.8 |
| 20260506122711 | 66 | 276 | 7.0 | 0.0 | 0.00 | 0.00 | 0.00 | 55 | 1004.8 |
| 20260506122611 | 66 | 50 | 6.0 | 0.0 | 0.00 | 0.00 | 0.00 | 55 | 1004.7 |
| 20260506122511 | 66 | 102 | 4.0 | 0.0 | 0.00 | 0.00 | 0.00 | 55 | 1004.8 |
| 20260506122411 | 66 | 68 | 4.0 | 0.0 | 0.00 | 0.00 | 0.00 | 55 | 1004.7 |
| 20260506122310 | 65 | 97 | 5.0 | 0.0 | 0.00 | 0.00 | 0.00 | 55 | 1004.8 |
| 20260506122210 | 65 | 32 | 3.0 | 0.0 | 0.00 | 0.00 | 0.00 | 54 | 1004.8 |
| 20260506122110 | 65 | 276 | 8.0 | 0.0 | 0.00 | 0.00 | 0.00 | 55 | 1004.8 |
| 20260506122010 | 65 | 244 | 4.0 | 0.0 | 0.00 | 0.00 | 0.00 | 56 | 1004.7 |
| 20260506121910 | 65 | 237 | 4.0 | 0.0 | 0.00 | 0.00 | 0.00 | 57 | 1004.8 |
| 20260506121810 | 65 | 180 | 2.0 | 0.0 | 0.00 | 0.00 | 0.00 | 56 | 1004.9 |
| 20260506121710 | 65 | 223 | 3.0 | 0.0 | 0.00 | 0.00 | 0.00 | 56 | 1004.8 |
| 20260506121610 | 65 | 129 | 4.0 | 0.0 | 0.00 | 0.00 | 0.00 | 55 | 1004.8 |
| 20260506121510 | 65 | 89 | 3.0 | 0.0 | 0.00 | 0.00 | 0.00 | 54 | 1004.8 |
| 20260506121410 | 65 | 173 | 3.0 | 0.0 | 0.00 | 0.00 | 0.00 | 55 | 1004.8 |
| 20260506121310 | 65 | 128 | 8.0 | 0.0 | 0.00 | 0.00 | 0.00 | 54 | 1004.7 |
| 20260506121210 | 65 | 74 | 6.0 | 0.0 | 0.00 | 0.00 | 0.00 | 53 | 1004.8 |
| 20260506121110 | 65 | 165 | 6.0 | 0.0 | 0.00 | 0.00 | 0.00 | 53 | 1004.8 |
| 20260506121010 | 65 | 81 | 5.0 | 0.0 | 0.00 | 0.00 | 0.00 | 53 | 1004.8 |
| 20260506120910 | 65 | 120 | 11.0 | 0.0 | 0.00 | 0.00 | 0.00 | 54 | 1004.8 |
| 20260506120810 | 65 | 182 | 5.0 | 0.0 | 0.00 | 0.00 | 0.00 | 53 | 1004.8 |
| 20260506120709 | 66 | 272 | 5.0 | 0.0 | 0.00 | 0.00 | 0.00 | 53 | 1004.8 |
| 20260506120609 | 65 | 141 | 4.0 | 0.0 | 0.00 | 0.00 | 0.00 | 53 | 1004.9 |
| 20260506120509 | 65 | 10 | 1.0 | 0.0 | 0.00 | 0.00 | 0.00 | 53 | 1004.9 |
| 20260506120409 | 65 | 287 | 3.0 | 0.0 | 0.00 | 0.00 | 0.00 | 55 | 1004.9 |
| 20260506120309 | 65 | 194 | 2.0 | 0.0 | 0.00 | 0.00 | 0.00 | 55 | 1004.8 |
| 20260506120209 | 65 | 295 | 2.0 | 0.0 | 0.00 | 0.00 | 0.00 | 55 | 1004.8 |
| 20260506120109 | 65 | 100 | 3.0 | 0.0 | 0.00 | 0.00 | 0.00 | 58 | 1004.8 |
| 20260506120009 | 64 | 320 | 2.0 | 0.0 | 0.00 | 0.00 | 0.00 | 60 | 1004.9 |
| 20260506115909 | 64 | 134 | 2.0 | 0.0 | 0.00 | 0.00 | 0.00 | 59 | 1004.8 |
| 20260506115809 | 64 | 275 | 2.0 | 0.0 | 0.00 | 0.00 | 0.00 | 58 | 1004.9 |
| 20260506115709 | 64 | 127 | 8.0 | 0.0 | 0.00 | 0.00 | 0.00 | 58 | 1004.8 |
| 20260506115609 | 64 | 118 | 8.0 | 0.0 | 0.00 | 0.00 | 0.00 | 58 | 1004.8 |
| 20260506115509 | 64 | 40 | 2.0 | 0.0 | 0.00 | 0.00 | 0.00 | 59 | 1004.8 |
| 20260506115409 | 64 | 251 | 3.0 | 0.0 | 0.00 | 0.00 | 0.00 | 57 | 1004.9 |
| 20260506115309 | 64 | 317 | 3.0 | 0.0 | 0.00 | 0.00 | 0.00 | 57 | 1004.8 |
| 20260506115209 | 64 | 256 | 4.0 | 0.0 | 0.00 | 0.00 | 0.00 | 57 | 1004.9 |
| 20260506115109 | 64 | 308 | 10.0 | 0.0 | 0.00 | 0.00 | 0.00 | 58 | 1004.9 |
| 20260506115008 | 64 | 278 | 4.0 | 0.0 | 0.00 | 0.00 | 0.00 | 58 | 1004.7 |
| 20260506114908 | 64 | 35 | 3.0 | 0.0 | 0.00 | 0.00 | 0.00 | 58 | 1004.8 |
| 20260506114808 | 64 | 72 | 2.0 | 0.0 | 0.00 | 0.00 | 0.00 | 58 | 1004.8 |
| 20260506114709 | 64 | 267 | 4.0 | 0.0 | 0.00 | 0.00 | 0.00 | 58 | 1004.8 |
| 20260506114608 | 64 | 255 | 7.0 | 0.0 | 0.00 | 0.00 | 0.00 | 59 | 1004.7 |
| 20260506114508 | 64 | 297 | 3.0 | 0.0 | 0.00 | 0.00 | 0.00 | 61 | 1004.9 |
| 20260506114408 | 63 | 354 | 6.0 | 0.0 | 0.00 | 0.00 | 0.00 | 62 | 1004.9 |
| 20260506114308 | 63 | 46 | 2.0 | 0.0 | 0.00 | 0.00 | 0.00 | 62 | 1004.8 |
| 20260506114208 | 63 | 37 | 4.0 | 0.0 | 0.00 | 0.00 | 0.00 | 61 | 1004.8 |
| 20260506114108 | 62 | 0 | 1.0 | 0.0 | 0.00 | 0.00 | 0.00 | 60 | 1004.9 |
| 20260506114008 | 62 | 123 | 4.0 | 0.0 | 0.00 | 0.00 | 0.00 | 59 | 1005.0 |
| 20260506113908 | 63 | 134 | 6.0 | 0.0 | 0.00 | 0.00 | 0.00 | 58 | 1004.9 |
| 20260506113808 | 63 | 103 | 6.0 | 0.0 | 0.00 | 0.00 | 0.00 | 58 | 1005.0 |
| 20260506113708 | 63 | 129 | 9.0 | 0.0 | 0.00 | 0.00 | 0.00 | 58 | 1004.9 |
| 20260506113608 | 63 | 150 | 4.0 | 0.0 | 0.00 | 0.00 | 0.00 | 59 | 1004.9 |
| 20260506113508 | 63 | 141 | 8.0 | 0.0 | 0.00 | 0.00 | 0.00 | 59 | 1004.8 |
| 20260506113407 | 63 | 158 | 4.0 | 0.0 | 0.00 | 0.00 | 0.00 | 59 | 1004.9 |
| 20260506113307 | 63 | 76 | 6.0 | 0.0 | 0.00 | 0.00 | 0.00 | 58 | 1004.9 |
| 20260506113207 | 63 | 148 | 4.0 | 0.0 | 0.00 | 0.00 | 0.00 | 57 | 1004.9 |
| 20260506113107 | 63 | 87 | 6.0 | 0.0 | 0.00 | 0.00 | 0.00 | 57 | 1004.9 |
| 20260506113007 | 63 | 137 | 7.0 | 0.0 | 0.00 | 0.00 | 0.00 | 58 | 1004.9 |
| 20260506112907 | 63 | 307 | 5.0 | 0.0 | 0.00 | 0.00 | 0.00 | 57 | 1004.8 |
| 20260506112807 | 64 | 1 | 4.0 | 0.0 | 0.00 | 0.00 | 0.00 | 57 | 1004.8 |
| 20260506112707 | 64 | 76 | 3.0 | 0.0 | 0.00 | 0.00 | 0.00 | 57 | 1004.8 |
| 20260506112607 | 64 | 255 | 4.0 | 0.0 | 0.00 | 0.00 | 0.00 | 57 | 1004.8 |
| 20260506112507 | 64 | 148 | 5.0 | 0.0 | 0.00 | 0.00 | 0.00 | 57 | 1004.8 |
| 20260506112407 | 64 | 123 | 6.0 | 0.0 | 0.00 | 0.00 | 0.00 | 56 | 1004.9 |
| 20260506112307 | 64 | 93 | 4.0 | 0.0 | 0.00 | 0.00 | 0.00 | 57 | 1004.9 |
| 20260506112207 | 64 | 91 | 4.0 | 0.0 | 0.00 | 0.00 | 0.00 | 56 | 1004.8 |
| 20260506112107 | 65 | 275 | 2.0 | 0.0 | 0.00 | 0.00 | 0.00 | 55 | 1004.8 |
| 20260506112007 | 65 | 260 | 12.0 | 0.0 | 0.00 | 0.00 | 0.00 | 55 | 1004.8 |
| 20260506111907 | 65 | 337 | 3.0 | 0.0 | 0.00 | 0.00 | 0.00 | 56 | 1004.9 |
| 20260506111806 | 65 | 258 | 8.0 | 0.0 | 0.00 | 0.00 | 0.00 | 55 | 1004.8 |
| 20260506111706 | 65 | 262 | 6.0 | 0.0 | 0.00 | 0.00 | 0.00 | 54 | 1004.8 |
| 20260506111606 | 65 | 277 | 9.0 | 0.0 | 0.00 | 0.00 | 0.00 | 56 | 1004.7 |
| 20260506111506 | 65 | 8 | 2.0 | 3.0 | 0.00 | 0.00 | 0.00 | 53 | 1004.9 |
| 20260506111406 | 65 | 308 | 2.0 | 0.0 | 0.00 | 0.00 | 0.00 | 54 | 1004.8 |
| 20260506111306 | 65 | 286 | 5.0 | 0.0 | 0.00 | 0.00 | 0.00 | 55 | 1004.8 |
| 20260506111206 | 65 | 271 | 5.0 | 0.0 | 0.00 | 0.00 | 0.00 | 55 | 1004.9 |
| 20260506111106 | 65 | 222 | 3.0 | 0.0 | 0.00 | 0.00 | 0.00 | 54 | 1004.9 |
| 20260506111006 | 65 | 295 | 3.0 | 3.0 | 0.00 | 0.00 | 0.00 | 53 | 1004.9 |
| 20260506110906 | 65 | 295 | 3.0 | 3.0 | 0.00 | 0.00 | 0.00 | 55 | 1004.9 |
| 20260506110806 | 65 | 105 | 3.0 | 0.0 | 0.00 | 0.00 | 0.00 | 55 | 1004.8 |
| 20260506110706 | 65 | 279 | 3.0 | 0.0 | 0.00 | 0.00 | 0.00 | 55 | 1004.8 |
| 20260506110606 | 65 | 263 | 4.0 | 0.0 | 0.00 | 0.00 | 0.00 | 55 | 1004.8 |
| 20260506110506 | 65 | 269 | 5.0 | 0.0 | 0.00 | 0.00 | 0.00 | 55 | 1004.8 |
| 20260506110406 | 65 | 278 | 5.0 | 0.0 | 0.00 | 0.00 | 0.00 | 56 | 1004.9 |
| 20260506110306 | 65 | 148 | 5.0 | 0.0 | 0.00 | 0.00 | 0.00 | 57 | 1004.9 |
| 20260506110206 | 65 | 250 | 4.0 | 0.0 | 0.00 | 0.00 | 0.00 | 59 | 1005.0 |
| 20260506110105 | 64 | 276 | 3.0 | 0.0 | 0.00 | 0.00 | 0.00 | 60 | 1004.9 |
| 20260506110005 | 64 | 136 | 3.0 | 0.0 | 0.00 | 0.00 | 0.00 | 61 | 1005.0 |
| 20260506105905 | 64 | 320 | 3.0 | 0.0 | 0.00 | 0.00 | 0.00 | 60 | 1005.0 |
| 20260506105805 | 64 | 309 | 4.0 | 0.0 | 0.00 | 0.00 | 0.00 | 59 | 1005.0 |
| 20260506105705 | 64 | 278 | 4.0 | 0.0 | 0.00 | 0.00 | 0.00 | 59 | 1005.0 |
| 20260506105605 | 64 | 269 | 4.0 | 0.0 | 0.00 | 0.00 | 0.00 | 58 | 1004.9 |
| 20260506105505 | 64 | 268 | 4.0 | 0.0 | 0.00 | 0.00 | 0.00 | 57 | 1005.0 |
| 20260506105405 | 64 | 271 | 5.0 | 0.0 | 0.00 | 0.00 | 0.00 | 57 | 1005.0 |
| 20260506105305 | 64 | 223 | 2.0 | 0.0 | 0.00 | 0.00 | 0.00 | 57 | 1005.0 |
| 20260506105205 | 64 | 268 | 6.0 | 0.0 | 0.00 | 0.00 | 0.00 | 57 | 1005.0 |
| 20260506105105 | 64 | 279 | 6.0 | 0.0 | 0.00 | 0.00 | 0.00 | 58 | 1005.1 |
| 20260506105005 | 64 | 168 | 3.0 | 3.0 | 0.00 | 0.00 | 0.00 | 59 | 1005.0 |
| 20260506104905 | 64 | 280 | 4.0 | 0.0 | 0.00 | 0.00 | 0.00 | 59 | 1005.1 |
| 20260506104805 | 64 | 168 | 3.0 | 0.0 | 0.00 | 0.00 | 0.00 | 59 | 1005.2 |
| 20260506104705 | 64 | 288 | 5.0 | 0.0 | 0.00 | 0.00 | 0.00 | 60 | 1005.0 |
| 20260506104605 | 64 | 33 | 3.0 | 0.0 | 0.00 | 0.00 | 0.00 | 60 | 1005.0 |
| 20260506104504 | 64 | 110 | 6.0 | 0.0 | 0.00 | 0.00 | 0.00 | 60 | 1005.0 |
| 20260506104404 | 64 | 73 | 2.0 | 0.0 | 0.00 | 0.00 | 0.00 | 59 | 1005.1 |
| 20260506104304 | 64 | 261 | 2.0 | 0.0 | 0.00 | 0.00 | 0.00 | 60 | 1005.0 |
| 20260506104204 | 64 | 114 | 4.0 | 0.0 | 0.00 | 0.00 | 0.00 | 61 | 1005.0 |
| 20260506104104 | 64 | 294 | 2.0 | 0.0 | 0.00 | 0.00 | 0.00 | 62 | 1005.0 |
| 20260506104004 | 64 | 74 | 2.0 | 0.0 | 0.00 | 0.00 | 0.00 | 63 | 1005.0 |
| 20260506103904 | 64 | 287 | 4.0 | 0.0 | 0.00 | 0.00 | 0.00 | 64 | 1005.0 |
| 20260506103804 | 63 | 91 | 2.0 | 0.0 | 0.00 | 0.00 | 0.00 | 63 | 1005.1 |
| 20260506103704 | 63 | 337 | 3.0 | 0.0 | 0.00 | 0.00 | 0.00 | 63 | 1005.0 |
| 20260506103604 | 63 | 83 | 4.0 | 0.0 | 0.00 | 0.00 | 0.00 | 62 | 1005.1 |
| 20260506103504 | 63 | 285 | 3.0 | 0.0 | 0.00 | 0.00 | 0.00 | 63 | 1005.0 |
| 20260506103404 | 63 | 262 | 1.0 | 0.0 | 0.00 | 0.00 | 0.00 | 64 | 1005.1 |
| 20260506103304 | 62 | 254 | 2.0 | 0.0 | 0.00 | 0.00 | 0.00 | 67 | 1005.1 |
| 20260506103204 | 62 | 343 | 2.0 | 0.0 | 0.00 | 0.00 | 0.00 | 67 | 1005.0 |
| 20260506103104 | 62 | 277 | 2.0 | 0.0 | 0.00 | 0.00 | 0.00 | 65 | 1005.0 |
| 20260506103004 | 62 | 181 | 2.0 | 0.0 | 0.00 | 0.00 | 0.00 | 65 | 1005.2 |
| 20260506102903 | 62 | 295 | 1.0 | 0.0 | 0.00 | 0.00 | 0.00 | 65 | 1005.1 |
| 20260506102803 | 62 | 245 | 6.0 | 0.0 | 0.00 | 0.00 | 0.00 | 64 | 1005.1 |
| 20260506102703 | 62 | 271 | 4.0 | 0.0 | 0.00 | 0.00 | 0.00 | 65 | 1005.1 |
| 20260506102603 | 61 | 240 | 4.0 | 0.0 | 0.00 | 0.00 | 0.00 | 66 | 1005.2 |
| 20260506102503 | 61 | 351 | 1.0 | 0.0 | 0.00 | 0.00 | 0.00 | 66 | 1005.1 |
| 20260506102403 | 61 | 280 | 4.0 | 0.0 | 0.00 | 0.00 | 0.00 | 65 | 1005.2 |
| 20260506102305 | 61 | 254 | 6.0 | 0.0 | 0.00 | 0.00 | 0.00 | 64 | 1005.1 |
| 20260506102203 | 62 | 275 | 5.0 | 0.0 | 0.00 | 0.00 | 0.00 | 64 | 1005.1 |
| 20260506102103 | 62 | 266 | 6.0 | 0.0 | 0.00 | 0.00 | 0.00 | 64 | 1005.2 |
| 20260506102003 | 62 | 292 | 3.0 | 0.0 | 0.00 | 0.00 | 0.00 | 65 | 1005.2 |
| 20260506101903 | 62 | 350 | 2.0 | 0.0 | 0.00 | 0.00 | 0.00 | 67 | 1005.2 |
| 20260506101803 | 62 | 74 | 2.0 | 0.0 | 0.00 | 0.00 | 0.00 | 67 | 1005.2 |
| 20260506101703 | 62 | 274 | 5.0 | 0.0 | 0.00 | 0.00 | 0.00 | 65 | 1005.3 |
| 20260506101603 | 62 | 93 | 7.0 | 0.0 | 0.00 | 0.00 | 0.00 | 66 | 1005.2 |
| 20260506101503 | 62 | 92 | 6.0 | 0.0 | 0.00 | 0.00 | 0.00 | 65 | 1005.3 |
| 20260506101403 | 62 | 145 | 7.0 | 0.0 | 0.00 | 0.00 | 0.00 | 66 | 1005.2 |
| 20260506101302 | 61 | 127 | 6.0 | 0.0 | 0.00 | 0.00 | 0.00 | 66 | 1005.3 |
| 20260506101202 | 61 | 113 | 2.0 | 0.0 | 0.00 | 0.00 | 0.00 | 65 | 1005.3 |
| 20260506101102 | 61 | 279 | 5.0 | 0.0 | 0.00 | 0.00 | 0.00 | 66 | 1005.2 |
| 20260506101002 | 61 | 275 | 5.0 | 0.0 | 0.00 | 0.00 | 0.00 | 66 | 1005.3 |
| 20260506100902 | 62 | 268 | 4.0 | 0.0 | 0.00 | 0.00 | 0.00 | 65 | 1005.3 |
| 20260506100802 | 62 | 280 | 6.0 | 0.0 | 0.00 | 0.00 | 0.00 | 63 | 1005.3 |
| 20260506100702 | 62 | 257 | 6.0 | 0.0 | 0.00 | 0.00 | 0.00 | 64 | 1005.4 |
| 20260506100602 | 62 | 230 | 5.0 | 0.0 | 0.00 | 0.00 | 0.00 | 64 | 1005.4 |
| 20260506100502 | 62 | 214 | 2.0 | 0.0 | 0.00 | 0.00 | 0.00 | 63 | 1005.5 |
| 20260506100402 | 62 | 60 | 1.0 | 0.0 | 0.00 | 0.00 | 0.00 | 63 | 1005.5 |
| 20260506100302 | 62 | 106 | 4.0 | 0.0 | 0.00 | 0.00 | 0.00 | 64 | 1005.5 |
| 20260506100202 | 62 | 61 | 3.0 | 0.0 | 0.00 | 0.00 | 0.00 | 64 | 1005.4 |
| 20260506100002 | 62 | 275 | 5.0 | 0.0 | 0.00 | 0.00 | 0.00 | 64 | 1005.3 |
| 20260506095902 | 62 | 359 | 4.0 | 0.0 | 0.00 | 0.00 | 0.00 | 64 | 1005.5 |
| 20260506095802 | 62 | 46 | 5.0 | 0.0 | 0.00 | 0.00 | 0.00 | 65 | 1005.4 |
| 20260506095702 | 62 | 273 | 10.0 | 0.0 | 0.00 | 0.00 | 0.00 | 67 | 1005.3 |
| 20260506095601 | 62 | 233 | 1.0 | 0.0 | 0.00 | 0.00 | 0.00 | 66 | 1005.4 |
| 20260506095501 | 62 | 127 | 7.0 | 0.0 | 0.00 | 0.00 | 0.00 | 67 | 1005.3 |
| 20260506095401 | 62 | 182 | 3.0 | 0.0 | 0.00 | 0.00 | 0.00 | 68 | 1005.2 |
| 20260506095305 | 61 | 150 | 2.0 | 0.0 | 0.00 | 0.00 | 0.00 | 68 | 1005.4 |
| 20260506095201 | 61 | 135 | 8.0 | 0.0 | 0.00 | 0.00 | 0.00 | 68 | 1005.3 |
| 20260506095101 | 61 | 272 | 3.0 | 0.0 | 0.00 | 0.00 | 0.00 | 67 | 1005.2 |
| 20260506095002 | 61 | 257 | 11.0 | 0.0 | 0.00 | 0.00 | 0.00 | 69 | 1005.4 |
| 20260506094901 | 61 | 326 | 3.0 | 0.0 | 0.00 | 0.00 | 0.00 | 70 | 1005.3 |
| 20260506094801 | 61 | 285 | 4.0 | 0.0 | 0.00 | 0.00 | 0.00 | 70 | 1005.3 |
| 20260506094701 | 61 | 133 | 4.0 | 0.0 | 0.00 | 0.00 | 0.00 | 70 | 1005.2 |
| 20260506094601 | 61 | 136 | 1.0 | 0.0 | 0.00 | 0.00 | 0.00 | 69 | 1005.4 |
| 20260506094501 | 61 | 323 | 3.0 | 0.0 | 0.00 | 0.00 | 0.00 | 68 | 1005.2 |
| 20260506094401 | 61 | 116 | 8.0 | 0.0 | 0.00 | 0.00 | 0.00 | 68 | 1005.2 |
| 20260506094301 | 61 | 89 | 4.0 | 0.0 | 0.00 | 0.00 | 0.00 | 67 | 1005.3 |
| 20260506094201 | 62 | 217 | 6.0 | 0.0 | 0.00 | 0.00 | 0.00 | 66 | 1005.3 |
| 20260506094101 | 62 | 258 | 4.0 | 3.0 | 0.00 | 0.00 | 0.00 | 67 | 1005.1 |
| 20260506094000 | 62 | 275 | 6.0 | 0.0 | 0.00 | 0.00 | 0.00 | 67 | 1005.3 |
| 20260506093900 | 61 | 123 | 1.0 | 0.0 | 0.00 | 0.00 | 0.00 | 67 | 1005.3 |
| 20260506093800 | 61 | 281 | 4.0 | 0.0 | 0.00 | 0.00 | 0.00 | 67 | 1005.3 |
| 20260506093700 | 61 | 283 | 2.0 | 0.0 | 0.00 | 0.00 | 0.00 | 65 | 1005.4 |
| 20260506093600 | 62 | 259 | 6.0 | 0.0 | 0.00 | 0.00 | 0.00 | 63 | 1005.3 |
| 20260506093500 | 62 | 267 | 8.0 | 0.0 | 0.00 | 0.00 | 0.00 | 64 | 1005.4 |
| 20260506093400 | 62 | 277 | 6.0 | 0.0 | 0.00 | 0.00 | 0.00 | 65 | 1005.2 |
| 20260506093300 | 62 | 15 | 1.0 | 0.0 | 0.00 | 0.00 | 0.00 | 66 | 1005.3 |
| 20260506093200 | 62 | 277 | 6.0 | 0.0 | 0.00 | 0.00 | 0.00 | 66 | 1005.3 |
| 20260506093100 | 62 | 354 | 3.0 | 0.0 | 0.00 | 0.00 | 0.00 | 66 | 1005.1 |
| 20260506093000 | 62 | 307 | 4.0 | 0.0 | 0.00 | 0.00 | 0.00 | 67 | 1005.3 |
| 20260506092900 | 62 | 255 | 2.0 | 0.0 | 0.00 | 0.00 | 0.00 | 68 | 1005.3 |
| 20260506092800 | 61 | 266 | 2.0 | 0.0 | 0.00 | 0.00 | 0.00 | 69 | 1005.2 |
| 20260506092700 | 61 | 77 | 2.0 | 0.0 | 0.00 | 0.00 | 0.00 | 69 | 1005.2 |
| 20260506092600 | 61 | 247 | 2.0 | 0.0 | 0.00 | 0.00 | 0.00 | 69 | 1005.2 |
| 20260506092500 | 61 | 223 | 1.0 | 0.0 | 0.00 | 0.00 | 0.00 | 67 | 1005.2 |
| 20260506092400 | 61 | 267 | 6.0 | 0.0 | 0.00 | 0.00 | 0.00 | 66 | 1005.3 |
| 20260506092259 | 61 | 278 | 7.0 | 0.0 | 0.00 | 0.00 | 0.00 | 67 | 1005.2 |
| 20260506092159 | 61 | 274 | 12.0 | 0.0 | 0.00 | 0.00 | 0.00 | 68 | 1005.2 |
| 20260506092059 | 61 | 76 | 3.0 | 0.0 | 0.00 | 0.00 | 0.00 | 69 | 1005.2 |
| 20260506091959 | 61 | 282 | 11.0 | 0.0 | 0.00 | 0.00 | 0.00 | 70 | 1005.2 |
| 20260506091859 | 61 | 307 | 3.0 | 0.0 | 0.00 | 0.00 | 0.00 | 71 | 1005.2 |
| 20260506091759 | 62 | 303 | 3.0 | 0.0 | 0.00 | 0.00 | 0.00 | 69 | 1005.3 |
| 20260506091659 | 62 | 141 | 4.0 | 0.0 | 0.00 | 0.00 | 0.00 | 68 | 1005.3 |
| 20260506091559 | 62 | 99 | 6.0 | 0.0 | 0.00 | 0.00 | 0.00 | 68 | 1005.2 |
| 20260506091459 | 62 | 103 | 4.0 | 0.0 | 0.00 | 0.00 | 0.00 | 69 | 1005.2 |
| 20260506091359 | 62 | 213 | 4.0 | 0.0 | 0.00 | 0.00 | 0.00 | 68 | 1005.1 |
| 20260506091259 | 62 | 236 | 2.0 | 0.0 | 0.00 | 0.00 | 0.00 | 68 | 1005.1 |
| 20260506091159 | 62 | 11 | 3.0 | 0.0 | 0.00 | 0.00 | 0.00 | 68 | 1005.2 |
| 20260506091059 | 62 | 103 | 5.0 | 0.0 | 0.00 | 0.00 | 0.00 | 69 | 1005.2 |
| 20260506090959 | 62 | 353 | 4.0 | 0.0 | 0.00 | 0.00 | 0.00 | 69 | 1005.0 |
| 20260506090859 | 62 | 139 | 5.0 | 0.0 | 0.00 | 0.00 | 0.00 | 68 | 1005.1 |
| 20260506090758 | 62 | 0 | 3.0 | 0.0 | 0.00 | 0.00 | 0.00 | 66 | 1005.1 |
| 20260506090658 | 62 | 300 | 5.0 | 0.0 | 0.00 | 0.00 | 0.00 | 68 | 1005.2 |
| 20260506090558 | 62 | 243 | 3.0 | 0.0 | 0.00 | 0.00 | 0.00 | 67 | 1005.2 |
| 20260506090458 | 62 | 266 | 3.0 | 0.0 | 0.00 | 0.00 | 0.00 | 68 | 1005.1 |
| 20260506090358 | 63 | 326 | 3.0 | 0.0 | 0.00 | 0.00 | 0.00 | 69 | 1005.2 |
| 20260506090258 | 62 | 294 | 2.0 | 0.0 | 0.00 | 0.00 | 0.00 | 71 | 1005.2 |
| 20260506090158 | 62 | 116 | 3.0 | 0.0 | 0.00 | 0.00 | 0.00 | 70 | 1005.1 |
| 20260506090058 | 62 | 108 | 2.0 | 0.0 | 0.00 | 0.00 | 0.00 | 69 | 1005.1 |
| 20260506085958 | 62 | 30 | 2.0 | 0.0 | 0.00 | 0.00 | 0.00 | 70 | 1005.2 |
| 20260506085858 | 62 | 308 | 4.0 | 0.0 | 0.00 | 0.00 | 0.00 | 70 | 1005.2 |
| 20260506085758 | 62 | 184 | 4.0 | 0.0 | 0.00 | 0.00 | 0.00 | 68 | 1005.2 |
| 20260506085658 | 63 | 267 | 7.0 | 0.0 | 0.00 | 0.00 | 0.00 | 68 | 1005.2 |
| 20260506085558 | 63 | 266 | 10.0 | 0.0 | 0.00 | 0.00 | 0.00 | 70 | 1005.3 |
| 20260506085458 | 63 | 310 | 4.0 | 0.0 | 0.00 | 0.00 | 0.00 | 71 | 1005.0 |
| 20260506085358 | 62 | 82 | 3.0 | 0.0 | 0.00 | 0.00 | 0.00 | 71 | 1005.1 |
| 20260506085258 | 62 | 206 | 5.0 | 0.0 | 0.00 | 0.00 | 0.00 | 70 | 1005.1 |
| 20260506085158 | 62 | 160 | 4.0 | 0.0 | 0.00 | 0.00 | 0.00 | 70 | 1005.1 |
| 20260506085058 | 62 | 136 | 2.0 | 3.0 | 0.00 | 0.00 | 0.00 | 70 | 1005.0 |
| 20260506084957 | 62 | 322 | 4.0 | 0.0 | 0.00 | 0.00 | 0.00 | 71 | 1004.9 |
| 20260506084857 | 62 | 282 | 3.0 | 0.0 | 0.00 | 0.00 | 0.00 | 71 | 1005.0 |
| 20260506084757 | 62 | 301 | 5.0 | 0.0 | 0.00 | 0.00 | 0.00 | 71 | 1004.9 |
| 20260506084657 | 61 | 286 | 3.0 | 0.0 | 0.00 | 0.00 | 0.00 | 71 | 1005.0 |
| 20260506084557 | 62 | 89 | 1.0 | 0.0 | 0.00 | 0.00 | 0.00 | 70 | 1004.9 |
| 20260506084457 | 62 | 294 | 5.0 | 0.0 | 0.00 | 0.00 | 0.00 | 70 | 1005.0 |
| 20260506084357 | 62 | 277 | 6.0 | 0.0 | 0.00 | 0.00 | 0.00 | 71 | 1005.0 |
| 20260506084257 | 61 | 97 | 4.0 | 0.0 | 0.00 | 0.00 | 0.00 | 74 | 1005.1 |
| 20260506084157 | 61 | 309 | 3.0 | 0.0 | 0.00 | 0.00 | 0.00 | 73 | 1005.0 |
| 20260506084057 | 61 | 264 | 2.0 | 0.0 | 0.00 | 0.00 | 0.00 | 72 | 1005.0 |
| 20260506083957 | 61 | 285 | 3.0 | 0.0 | 0.00 | 0.00 | 0.00 | 74 | 1005.0 |
| 20260506083857 | 61 | 278 | 5.0 | 0.0 | 0.00 | 0.00 | 0.00 | 74 | 1004.9 |
| 20260506083757 | 61 | 183 | 1.0 | 0.0 | 0.00 | 0.00 | 0.00 | 74 | 1005.0 |
| 20260506083657 | 61 | 351 | 2.0 | 0.0 | 0.00 | 0.00 | 0.00 | 74 | 1005.1 |
| 20260506083557 | 61 | 140 | 2.0 | 0.0 | 0.00 | 0.00 | 0.00 | 74 | 1005.1 |
| 20260506083456 | 61 | 35 | 4.0 | 0.0 | 0.00 | 0.00 | 0.00 | 74 | 1005.0 |
| 20260506083356 | 61 | 268 | 4.0 | 0.0 | 0.00 | 0.00 | 0.00 | 73 | 1005.0 |
| 20260506083256 | 61 | 276 | 3.0 | 0.0 | 0.00 | 0.00 | 0.00 | 73 | 1004.9 |
| 20260506083156 | 61 | 51 | 2.0 | 0.0 | 0.00 | 0.00 | 0.00 | 72 | 1005.0 |
| 20260506083056 | 60 | 287 | 5.0 | 3.0 | 0.00 | 0.00 | 0.00 | 76 | 1005.1 |
| 20260506082956 | 61 | 335 | 5.0 | 0.0 | 0.00 | 0.00 | 0.00 | 75 | 1005.0 |
| 20260506082856 | 60 | 139 | 3.0 | 0.0 | 0.00 | 0.00 | 0.00 | 77 | 1005.0 |
| 20260506082756 | 60 | 258 | 3.0 | 3.0 | 0.00 | 0.00 | 0.00 | 76 | 1005.1 |
| 20260506082656 | 60 | 266 | 3.0 | 0.0 | 0.00 | 0.00 | 0.00 | 77 | 1005.0 |
| 20260506082556 | 60 | 180 | 1.0 | 0.0 | 0.00 | 0.00 | 0.00 | 76 | 1005.1 |
| 20260506082456 | 60 | 322 | 2.0 | 0.0 | 0.00 | 0.00 | 0.00 | 77 | 1005.0 |
| 20260506082356 | 60 | 277 | 5.0 | 0.0 | 0.00 | 0.00 | 0.00 | 76 | 1004.9 |
| 20260506082256 | 60 | 276 | 3.0 | 0.0 | 0.00 | 0.00 | 0.00 | 76 | 1005.0 |
| 20260506082156 | 60 | 273 | 3.0 | 0.0 | 0.00 | 0.00 | 0.00 | 77 | 1004.9 |
| 20260506082056 | 60 | 186 | 5.0 | 0.0 | 0.00 | 0.00 | 0.00 | 77 | 1004.9 |
| 20260506081956 | 60 | 71 | 3.0 | 0.0 | 0.00 | 0.00 | 0.00 | 77 | 1004.9 |
| 20260506081856 | 60 | 250 | 3.0 | 0.0 | 0.00 | 0.00 | 0.00 | 77 | 1005.0 |
| 20260506081755 | 59 | 280 | 4.0 | 0.0 | 0.00 | 0.00 | 0.00 | 78 | 1005.0 |
| 20260506081655 | 59 | 298 | 4.0 | 0.0 | 0.00 | 0.00 | 0.00 | 77 | 1004.9 |
| 20260506081555 | 59 | 144 | 3.0 | 0.0 | 0.00 | 0.00 | 0.00 | 76 | 1005.0 |
| 20260506081455 | 60 | 289 | 5.0 | 0.0 | 0.00 | 0.00 | 0.00 | 76 | 1004.9 |
| 20260506081355 | 60 | 352 | 3.0 | 0.0 | 0.00 | 0.00 | 0.00 | 76 | 1005.0 |
| 20260506081255 | 60 | 67 | 3.0 | 0.0 | 0.00 | 0.00 | 0.00 | 75 | 1005.1 |
| 20260506081155 | 60 | 279 | 6.0 | 0.0 | 0.00 | 0.00 | 0.00 | 76 | 1005.1 |
| 20260506081055 | 60 | 277 | 4.0 | 0.0 | 0.00 | 0.00 | 0.00 | 76 | 1005.0 |
| 20260506080955 | 60 | 279 | 6.0 | 3.0 | 0.00 | 0.00 | 0.00 | 76 | 1004.9 |
| 20260506080855 | 60 | 128 | 5.0 | 0.0 | 0.00 | 0.00 | 0.00 | 76 | 1004.9 |
| 20260506080755 | 60 | 302 | 5.0 | 0.0 | 0.00 | 0.00 | 0.00 | 76 | 1005.0 |
| 20260506080655 | 60 | 323 | 4.0 | 0.0 | 0.00 | 0.00 | 0.00 | 76 | 1004.9 |
| 20260506080555 | 60 | 118 | 3.0 | 0.0 | 0.00 | 0.00 | 0.00 | 76 | 1005.0 |
| 20260506080455 | 60 | 150 | 5.0 | 0.0 | 0.00 | 0.00 | 0.00 | 77 | 1004.9 |
| 20260506080355 | 60 | 89 | 6.0 | 0.0 | 0.00 | 0.00 | 0.00 | 78 | 1004.9 |
| 20260506080255 | 60 | 7 | 2.0 | 0.0 | 0.00 | 0.00 | 0.00 | 78 | 1005.1 |
| 20260506080154 | 60 | 296 | 5.0 | 0.0 | 0.00 | 0.00 | 0.00 | 79 | 1005.0 |
| 20260506073453 | 57 | 41 | 3.0 | 0.0 | 0.00 | 0.00 | 0.00 | 84 | 1004.9 |
| 20260506073353 | 57 | 46 | 2.0 | 0.0 | 0.00 | 0.00 | 0.00 | 84 | 1004.9 |
| 20260506073253 | 57 | 147 | 1.0 | 0.0 | 0.00 | 0.00 | 0.00 | 83 | 1004.9 |
| 20260506073153 | 57 | 225 | 2.0 | 0.0 | 0.00 | 0.00 | 0.00 | 84 | 1005.0 |
| 20260506073053 | 57 | 291 | 3.0 | 0.0 | 0.00 | 0.00 | 0.00 | 84 | 1005.0 |
| 20260506072953 | 57 | 317 | 3.0 | 0.0 | 0.00 | 0.00 | 0.00 | 84 | 1005.0 |
| 20260506072853 | 57 | 252 | 4.0 | 0.0 | 0.00 | 0.00 | 0.00 | 84 | 1005.0 |
| 20260506072752 | 57 | 307 | 2.0 | 0.0 | 0.00 | 0.00 | 0.00 | 84 | 1005.1 |
| 20260506072652 | 57 | 296 | 3.0 | 0.0 | 0.00 | 0.00 | 0.00 | 84 | 1005.1 |
| 20260506072552 | 57 | 129 | 2.0 | 3.0 | 0.00 | 0.00 | 0.00 | 83 | 1004.9 |
| 20260506072452 | 57 | 0 | 2.0 | 0.0 | 0.00 | 0.00 | 0.00 | 83 | 1005.0 |
| 20260506072352 | 57 | 251 | 4.0 | 0.0 | 0.00 | 0.00 | 0.00 | 83 | 1005.0 |
| 20260506072252 | 57 | 290 | 3.0 | 0.0 | 0.00 | 0.00 | 0.00 | 83 | 1005.0 |
| 20260506072152 | 57 | 194 | 0.0 | 0.0 | 0.00 | 0.00 | 0.00 | 84 | 1005.0 |
| 20260506072052 | 57 | 278 | 4.0 | 0.0 | 0.00 | 0.00 | 0.00 | 85 | 1005.0 |
| 20260506071952 | 57 | 356 | 1.0 | 0.0 | 0.00 | 0.00 | 0.00 | 85 | 1005.0 |
| 20260506071852 | 57 | 45 | 2.0 | 0.0 | 0.00 | 0.00 | 0.00 | 85 | 1005.0 |
| 20260506071752 | 57 | 124 | 2.0 | 0.0 | 0.00 | 0.00 | 0.00 | 84 | 1005.0 |
| 20260506071652 | 57 | 21 | 2.0 | 0.0 | 0.00 | 0.00 | 0.00 | 85 | 1005.1 |
| 20260506071552 | 57 | 287 | 3.0 | 0.0 | 0.00 | 0.00 | 0.00 | 85 | 1005.0 |
| 20260506071452 | 57 | 12 | 2.0 | 0.0 | 0.00 | 0.00 | 0.00 | 84 | 1005.0 |
| 20260506071352 | 57 | 123 | 2.0 | 0.0 | 0.00 | 0.00 | 0.00 | 84 | 1005.0 |
| 20260506071251 | 57 | 80 | 4.0 | 0.0 | 0.00 | 0.00 | 0.00 | 85 | 1005.1 |
| 20260506071151 | 57 | 166 | 2.0 | 0.0 | 0.00 | 0.00 | 0.00 | 86 | 1005.1 |
| 20260506071051 | 57 | 326 | 2.0 | 0.0 | 0.00 | 0.00 | 0.00 | 87 | 1005.0 |
| 20260506070951 | 57 | 11 | 1.0 | 0.0 | 0.00 | 0.00 | 0.00 | 87 | 1005.0 |
| 20260506070851 | 56 | 227 | 1.0 | 0.0 | 0.00 | 0.00 | 0.00 | 87 | 1005.0 |
| 20260506070751 | 56 | 121 | 2.0 | 0.0 | 0.00 | 0.00 | 0.00 | 87 | 1005.1 |
| 20260506070651 | 56 | 159 | 2.0 | 0.0 | 0.00 | 0.00 | 0.00 | 87 | 1005.0 |
| 20260506070551 | 56 | 78 | 1.0 | 0.0 | 0.00 | 0.00 | 0.00 | 86 | 1005.0 |
| 20260506070451 | 56 | 282 | 1.0 | 0.0 | 0.00 | 0.00 | 0.00 | 86 | 1005.1 |
| 20260506070351 | 56 | 312 | 2.0 | 0.0 | 0.00 | 0.00 | 0.00 | 86 | 1005.1 |
| 20260506070251 | 56 | 320 | 2.0 | 0.0 | 0.00 | 0.00 | 0.00 | 86 | 1005.1 |
| 20260506070151 | 56 | 80 | 1.0 | 0.0 | 0.00 | 0.00 | 0.00 | 86 | 1005.1 |
| 20260506062449 | 56 | 112 | 2.0 | 0.0 | 0.00 | 0.00 | 0.00 | 87 | 1005.1 |
| 20260506062349 | 56 | 75 | 2.0 | 0.0 | 0.00 | 0.00 | 0.00 | 86 | 1005.0 |
| 20260506062248 | 56 | 133 | 6.0 | 0.0 | 0.00 | 0.00 | 0.00 | 87 | 1005.1 |
| 20260506062148 | 56 | 288 | 3.0 | 0.0 | 0.00 | 0.00 | 0.00 | 87 | 1005.0 |
| 20260506062048 | 56 | 68 | 2.0 | 0.0 | 0.00 | 0.00 | 0.00 | 87 | 1004.9 |
| 20260506061948 | 56 | 275 | 2.0 | 0.0 | 0.00 | 0.00 | 0.00 | 87 | 1004.9 |
| 20260506061848 | 56 | 155 | 4.0 | 0.0 | 0.00 | 0.00 | 0.00 | 87 | 1005.0 |
| 20260506061748 | 56 | 183 | 2.0 | 0.0 | 0.00 | 0.00 | 0.00 | 87 | 1004.9 |
| 20260506061648 | 56 | 330 | 3.0 | 0.0 | 0.00 | 0.00 | 0.00 | 86 | 1004.9 |
| 20260506061548 | 56 | 135 | 2.0 | 0.0 | 0.00 | 0.00 | 0.00 | 86 | 1004.9 |
| 20260506061448 | 56 | 150 | 4.0 | 0.0 | 0.00 | 0.00 | 0.00 | 85 | 1004.9 |
| 20260506061348 | 56 | 122 | 6.0 | 0.0 | 0.00 | 0.00 | 0.00 | 84 | 1004.9 |
| 20260506061248 | 57 | 80 | 4.0 | 0.0 | 0.00 | 0.00 | 0.00 | 84 | 1005.0 |
| 20260506061148 | 57 | 117 | 6.0 | 0.0 | 0.00 | 0.00 | 0.00 | 84 | 1005.0 |
| 20260506061048 | 57 | 106 | 5.0 | 0.0 | 0.00 | 0.00 | 0.00 | 84 | 1005.0 |
| 20260506060948 | 57 | 185 | 4.0 | 0.0 | 0.00 | 0.00 | 0.00 | 85 | 1005.1 |
| 20260506060848 | 56 | 104 | 6.0 | 0.0 | 0.00 | 0.00 | 0.00 | 85 | 1005.0 |
| 20260506060748 | 56 | 59 | 4.0 | 0.0 | 0.00 | 0.00 | 0.00 | 86 | 1005.1 |
| 20260506060647 | 56 | 120 | 2.0 | 0.0 | 0.00 | 0.00 | 0.00 | 86 | 1005.1 |
| 20260506060547 | 56 | 295 | 3.0 | 0.0 | 0.00 | 0.00 | 0.00 | 87 | 1005.0 |
| 20260506060447 | 56 | 75 | 2.0 | 0.0 | 0.00 | 0.00 | 0.00 | 88 | 1005.0 |
| 20260506060347 | 55 | 68 | 3.0 | 0.0 | 0.00 | 0.00 | 0.00 | 88 | 1004.9 |
| 20260506060247 | 55 | 334 | 1.0 | 0.0 | 0.00 | 0.00 | 0.00 | 88 | 1004.9 |
| 20260506060147 | 55 | 209 | 1.0 | 0.0 | 0.00 | 0.00 | 0.00 | 88 | 1004.9 |